     2.10           OBSERVATION DATA    G (GPS)             RINEX VERSION / TYPE
teqc 2000Feb29 simon 20020107 22:29:03UTC                   PGM / RUN BY / DATE
Linux 2.0.36|Pentium II|gcc|Linux|486/DX+                   COMMENT
BIT 2 OF LLI FLAGS DATA COLLECTED UNDER A/S CONDITION       COMMENT
BM25                                                        MARKER NAME
bm25                                                        MARKER NUMBER
___ -Unknown-                                               OBSERVER / AGENCY
481 ASHTECH Z-XII3 4J30                                     REC # / TYPE / VERS
015 ASH701933_M                                             ANT # / TYPE
 -2419847.0000 -4561817.0000  3732779.0000                  APPROX POSITION XYZ
        0.7394        0.0000        0.0000                  ANTENNA: DELTA H/E/N
     1     1                                                WAVELENGTH FACT L1/2
     7    L1    L2    C1    P1    P2    S1    S2            # / TYPES OF OBSERV
    30.0000                                                 INTERVAL
SNR is mapped to RINEX snr flag value [1-9]                 COMMENT
L1: 1 -> 1; 90 -> 5; 210 -> 9                               COMMENT
L2: 1 -> 1; 150 -> 5; 250 -> 9                              COMMENT
Original height was 0.8220                                  COMMENT
New height found assuming measured height 0.8220            COMMENT
and assuming radial 0.1737 vertical -0.0640                 COMMENT
  2001    12     3    15    54   30.0000000     GPS         TIME OF FIRST OBS
                                                            END OF HEADER
 01 12  3 15 54 30.0000000  0  8G20G13G29G 4G 1G25G11G22
    -84694.39049    -59160.77347  20482120.015    20482119.036    20482125.694
       235.000         207.000
   -347025.12549   -254099.17446  23377195.918    23377195.795    23377203.158
       225.000         174.000
     38522.31555                  24020358.683                    24020371.110
       215.000         156.000
   -192557.02449   -137759.07945  24667641.847    24667642.005    24667651.370
       219.000         154.000
   -248018.26049   -177789.74747  21273342.335    21273341.675    21273349.108
       243.000         210.000
     99240.27949     70760.53346  23542075.848    23542075.590    23542084.957
       230.000         182.000
     82177.92053                  25009573.084
       213.000          90.000
   -302238.37059   -136857.89757  20930196.879    20930195.797    20930203.981
       243.000         210.000
 01 12  3 15 55  0.0000000  0  8G20G13G29G 4G 1G25G11G22
   -114295.05349    -82226.30147  20476487.292    20476486.317    20476492.965
       235.000         207.000
   -469168.52349   -349275.93946  23353952.782    23353952.662    23353960.180
       227.000         174.000
     79161.15249     54525.83945  24024267.178    24024268.383    24024279.205
       215.000         156.000
   -263242.29449   -192838.70045  24654191.092    24654191.352    24654199.935
       222.000         151.000
   -333171.10649   -244142.67347  21257138.362    21257137.696    21257145.012
       243.000         208.000
    133699.75949     97611.83346  23548633.408    23548633.168    23548642.508
       229.000         180.000
     22860.76944                  25016597.888
       214.000         121.000
   -362066.77249   -183477.49747  20918812.028    20918810.960    20918819.004
       243.000         209.000
 01 12  3 15 55 30.0000000  0  8G20G13G29G 4G 1G25G11G22
   -143144.90349   -104706.77347  20470997.453    20470996.471    20471003.090
       235.000         207.000
   -591087.94749   -444278.15646  23330752.301    23330752.141    23330759.731
       229.000         174.000
    100003.65559     70766.44255  24028233.592    24028233.722    24028245.858
       213.000         156.000
   -333240.22349   -247382.70245  24640871.103    24640871.307    24640879.657
       222.000         150.000
   -417988.30449   -310234.05647  21240998.247    21240997.556    21241004.834
       242.000         208.000
    168391.47249    124644.10746  23555235.215    23555234.928    23555244.216
       229.000         180.000
     51678.77155                  25023635.911
       215.000         140.000
   -421065.13249   -229450.30147  20907585.168    20907584.073    20907591.974
       243.000         209.000
 01 12  3 15 56  0.0000000  0  9G20G13G27G29G 4G 1G25G11G22
   -171335.56449   -126673.59447  20465633.059    20465632.038    20465638.622
       236.000         209.000
   -712874.46749   -539176.79246  23307577.161    23307576.975    23307584.524
       228.000         174.000
   -388991.73059   -269557.31355  24873737.534    24873736.409    24873748.156
       207.000         145.000
    121059.12249     87172.97345  24032240.422    24032240.862    24032252.742
       214.000         157.000
   -402641.74049   -301461.93945  24627664.546    24627664.767    24627672.972
       220.000         150.000
   -502560.43849   -376134.47147  21224904.744    21224904.019    21224911.296
       242.000         209.000
    203222.92749    151785.24646  23561863.541    23561863.243    23561872.563
       230.000         180.000
    307378.48749     80477.74445  25030669.702    25030671.287    25030681.964
       217.000         146.000
   -479324.29649   -274847.10947  20896498.970    20896497.821    20896505.639
       244.000         211.000
 01 12  3 15 56 30.0000000  0  9G20G13G27G29G 4G 1G25G11G22
   -198904.80849   -148156.18547  20460386.934    20460385.863    20460392.426
       236.000         209.000
   -834565.01349   -634000.67446  23284420.317    23284420.086    23284427.617
       229.000         175.000
   -518603.18549   -370553.33745  24849073.143    24849072.202    24849083.714
       206.000         140.000
    142289.74249    103715.98345  24036280.687    24036280.918    24036293.117
       213.000         157.000
   -471484.66049   -355105.95945  24614564.347    24614564.479    24614572.741
       221.000         150.000
   -586924.64449   -441872.87547  21208850.811    21208850.073    21208857.373
       243.000         210.000
    238154.96149    179004.77546  23568511.160    23568510.738    23568520.018
       230.000         180.000
    344274.14059    109227.16855  25037691.370    25037693.026    25037705.983
       218.000         147.000
   -536881.44549   -319696.90347  20885546.374    20885545.174    20885552.901
       243.000         210.000
 01 12  3 15 57  0.0000000  0  9G20G13G27G29G 4G 1G25G11G22
   -225910.18549   -169199.40747  20455248.051    20455246.962    20455253.525
       237.000         209.000
   -956216.45749   -728794.06046  23261271.010    23261270.708    23261278.191
       229.000         177.000
   -648083.82559   -471447.40355  24824433.855    24824433.497    24824444.379
       216.000         155.000
    163638.45049    120351.02945  24040343.406    24040343.501    24040355.795
       214.000         157.000
   -539825.92049   -408359.02345  24601559.591    24601559.670    24601567.827
       218.000         148.000
   -671137.58249   -507493.40547  21192825.701    21192824.921    21192832.243
       243.000         210.000
    273128.79049    206256.85846  23575166.764    23575166.195    23575175.444
       230.000         179.000
    381045.39549    137879.61145  25044689.256    25044690.199    25044702.874
       215.000         143.000
   -593793.39149   -364043.93147  20874716.448    20874715.234    20874722.990
       244.000         210.000
 01 12  3 15 57 30.0000000  0  9G20G13G27G29G 4G 1G25G11G22
   -252305.46449   -189767.22947  20450225.279    20450224.161    20450230.727
       237.000         209.000
  -1077782.07649   -823520.56546  23238137.980    23238137.605    23238145.086
       228.000         176.000
   -777386.45149   -572202.86945  24799828.570    24799828.173    24799838.919
       220.000         157.000
    185151.62449    137114.22045  24044437.531    24044437.441    24044449.826
       214.000         157.000
   -607619.06349   -461184.99645  24588659.212    24588659.163    24588667.313
       219.000         148.000
   -755152.18749   -572959.38947  21176838.334    21176837.508    21176844.859
       243.000         209.000
    308189.45949    233576.61746  23581838.881    23581838.174    23581847.432
       229.000         179.000
    417736.35349    166469.51945  25051671.690    25051672.289    25051685.021
       213.000         139.000
   -650013.11549   -407851.56747  20864018.255    20864017.030    20864024.801
       243.000         210.000
 01 12  3 15 58  0.0000000  0  9G20G13G27G29G 4G 1G25G11G22
   -278071.06849   -209844.40047  20445322.305    20445321.190    20445327.749
       238.000         209.000
  -1199241.46049   -918164.27446  23215025.068    23215024.709    23215032.192
       229.000         175.000
   -906490.90949   -672803.88745  24775261.019    24775260.631    24775270.874
       219.000         159.000
    206849.39049    154021.25445  24048566.739    24048566.574    24048578.981
       216.000         159.000
   -674844.08449   -513568.28645  24575866.825    24575866.653    24575874.839
       220.000         145.000
   -838947.92749   -638254.82547  21160892.591    21160891.751    21160899.117
       243.000         209.000
    343355.39449    260978.38846  23588531.041    23588530.216    23588539.474
       229.000         178.000
    454364.30449    195010.31245  25058642.034    25058642.295    25058655.376
       211.000         139.000
   -705520.40049   -451104.05547  20853455.673    20853454.408    20853462.172
       243.000         210.000
 01 12  3 15 58 30.0000000  0  9G20G13G27G29G 4G 1G25G11G22
   -303195.79849   -229422.18147  20440541.282    20440540.161    20440546.718
       237.000         209.000
  -1320583.03749  -1012716.19146  23191934.708    23191934.271    23191941.717
       228.000         176.000
  -1035385.60649   -773241.43545  24750733.230    24750732.701    24750743.005
       219.000         162.000
    228742.82349    171080.76545  24052733.133    24052732.847    24052745.249
       213.000         158.000
   -741489.59749   -565500.01845  24563184.819    24563184.571    24563192.588
       219.000         146.000
   -922512.88349   -703370.42147  21144990.749    21144989.892    21144997.273
       242.000         209.000
    378636.31049    288469.76446  23595244.994    23595244.107    23595253.394
       228.000         178.000
    490937.86349    223508.70145  25065602.071    25065602.079    25065615.096
       209.000         140.000
   -760303.53949   -493792.26847  20843030.879    20843029.578    20843037.357
       243.000         210.000
 01 12  3 15 59  0.0000000  0  9G20G13G27G29G 4G 1G25G11G22
   -327673.63449   -248495.90047  20435883.381    20435882.245    20435888.808
       237.000         209.000
  -1441799.88049  -1107170.91346  23168868.015    23168867.568    23168875.009
       227.000         175.000
  -1164063.43649   -873510.03046  24726246.601    24726246.075    24726256.677
       220.000         163.000
    250838.58849    188297.93545  24056937.945    24056937.646    24056950.100
       214.000         158.000
   -807549.20449   -616975.20545  24550614.146    24550613.898    24550622.000
       219.000         146.000
  -1005839.86549   -768300.58847  21129134.214    21129133.345    21129140.720
       243.000         209.000
    414037.55049    316054.88546  23601981.798    23601980.906    23601990.227
       229.000         177.000
    527461.38149    251968.09445  25072552.582    25072552.354    25072565.677
       211.000         142.000
   -814355.73549   -535910.91947  20832745.174    20832743.862    20832751.636
       244.000         210.000
 01 12  3 15 59 30.0000000  0  9G20G13G27G29G 4G 1G25G11G22
   -351513.80849   -267072.72947  20431346.832    20431345.682    20431352.241
       237.000         209.000
  -1562900.30949  -1201534.92246  23145823.468    23145822.978    23145830.426
       229.000         175.000
  -1292532.75849   -973616.18145  24701799.710    24701799.146    24701810.108
       219.000         160.000
    273127.74749    205665.81245  24061179.644    24061179.189    24061191.805
       213.000         159.000
   -873031.65849   -668000.67345  24538153.419    24538153.117    24538161.227
       220.000         148.000
  -1088936.96449   -833051.62147  21113321.429    21113320.546    21113327.912
       243.000         209.000
    449548.93149    343725.82346  23608739.673    23608738.666    23608748.047
       228.000         179.000
    563923.51649    280379.66745  25079491.540    25079491.057    25079504.455
       212.000         142.000
   -867685.43549   -577466.58047  20822596.951    20822595.609    20822603.388
       243.000         210.000
 01 12  3 16  0  0.0000000  0  9G20G13G27G29G 4G 1G25G11G22
   -374714.24849   -285151.07247  20426932.024    20426930.844    20426937.412
       238.000         209.000
  -1683881.79249  -1295806.24646  23122801.526    23122801.042    23122808.426
       229.000         175.000
  -1420791.11049  -1073557.98545  24677393.125    24677392.450    24677403.668
       218.000         156.000
    295612.43449    223186.05045  24065458.685    24065458.022    24065470.781
       214.000         160.000
   -937934.73049   -718574.65145  24525802.924    24525802.554    24525810.684
       218.000         148.000
  -1171801.58249   -897621.51247  21097552.910    21097551.995    21097559.340
       244.000         209.000
    485171.18249    371483.14046  23615518.555    23615517.547    23615526.983
       229.000         179.000
    600323.76949    308743.00745  25086418.766    25086418.054    25086431.570
       210.000         139.000
   -920290.30949   -618457.43947  20812586.621    20812585.285    20812593.067
       243.000         210.000
 01 12  3 16  0 30.0000000  0  9G20G13G27G29G 4G 1G25G11G22
   -397261.54949   -302720.47547  20422641.504    20422640.300    20422646.854
       237.000         209.000
  -1804729.96249  -1389973.70146  23099804.873    23099804.438    23099811.852
       228.000         175.000
  -1548823.88149  -1173323.95945  24653029.700    24653028.828    24653040.134
       216.000         157.000
    318306.92549    240869.76145  24069777.582    24069776.815    24069789.637
       215.000         159.000
  -1002244.50649   -768686.33845  24513565.291    24513564.875    24513573.205
       219.000         148.000
  -1254418.84849   -961998.65147  21081831.418    21081830.509    21081837.849
       243.000         209.000
    520917.19549    399336.89946  23622321.084    23622319.988    23622329.470
       227.000         178.000
    636673.80649    337067.19545  25093336.422    25093335.508    25093349.084
       212.000         140.000
   -972155.86049   -658872.19447  20802716.956    20802715.652    20802723.466
       243.000         210.000
 01 12  3 16  1  0.0000000  0  9G20G13G27G29G 4G 1G25G11G22
   -419164.44849   -319787.74647  20418473.628    20418472.397    20418478.949
       238.000         209.000
  -1925452.34249  -1484043.12646  23076832.208    23076831.789    23076839.255
       229.000         175.000
  -1676638.90949  -1272920.23045  24628707.695    24628706.622    24628717.891
       217.000         157.000
    341202.87549    258710.45345  24074134.751    24074133.928    24074146.774
       214.000         159.000
  -1065969.19049   -818342.09845  24501439.105    24501438.518    24501446.980
       220.000         147.000
  -1336796.33849  -1026188.95347  21066155.564    21066154.640    21066161.987
       243.000         209.000
    556777.22249    427279.48846  23629145.175    23629144.092    23629153.634
       227.000         177.000
    672962.88449    365343.91945  25100242.457    25100241.343    25100254.981
       209.000         133.000
  -1023290.24749   -698717.21147  20792986.480    20792985.164    20792993.012
       243.000         211.000
 01 12  3 16  1 30.0000000  0  9G20G13G27G29G 4G 1G25G11G22
   -440426.60649   -336355.73647  20414427.634    20414426.406    20414432.977
       237.000         208.000
  -2046051.93649  -1578016.90346  23053882.961    23053882.550    23053889.936
       229.000         174.000
  -1804239.28049  -1372349.19945  24604426.412    24604425.224    24604436.450
       217.000         158.000
    364296.89449    276705.49845  24078529.662    24078528.743    24078541.581
       214.000         159.000
  -1129112.20649   -867544.62845  24489423.450    24489422.865    24489431.240
       219.000         147.000
  -1418936.93649  -1090194.66147  21050524.786    21050523.857    21050531.215
       243.000         209.000
    592746.34949    455307.11546  23635990.067    23635988.973    23635998.560
       227.000         177.000
    709184.90849    393568.43645  25107135.529    25107134.388    25107148.288
       210.000         137.000
  -1073696.68149   -737994.99047  20783394.518    20783393.191    20783401.069
       243.000         211.000
 01 12  3 16  2  0.0000000  0  9G20G13G27G29G 4G 1G25G11G22
   -461040.48749   -352418.57947  20410504.968    20410503.776    20410510.360
       237.000         208.000
  -2166520.17849  -1671888.31946  23030958.628    23030958.222    23030965.597
       229.000         174.000
  -1931616.52249  -1471604.32145  24580187.271    24580186.181    24580197.243
       214.000         151.000
    387596.86149    294861.01845  24082963.805    24082962.803    24082975.584
       214.000         160.000
  -1191665.78949   -916287.85745  24477520.132    24477519.456    24477527.859
       221.000         150.000
  -1500831.70949  -1154008.81947  21034940.779    21034939.838    21034947.204
       243.000         209.000
    628831.38449    483425.02746  23642857.003    23642855.946    23642865.552
       228.000         177.000
    745345.67849    421745.20644  25114016.975    25114015.878    25114029.848
       200.000         124.000
  -1123366.97649   -776699.15347  20773942.597    20773941.286    20773949.178
       243.000         210.000
 01 12  3 16  2 30.0000000  0  9G20G13G27G29G 4G 1G25G11G22
   -481014.26749   -367982.64647  20406704.134    20406702.940    20406709.543
       237.000         208.000
  -2286864.26649  -1765662.99446  23008057.930    23008057.528    23008064.965
       231.000         175.000
  -2058777.78549  -1570691.13945  24555989.077    24555988.148    24555999.076
       210.000         152.000
    411095.30549    313171.20045  24087435.788    24087434.643    24087447.509
       215.000         161.000
  -1253637.72749   -964577.84945  24465727.348    24465726.732    24465735.140
       220.000         147.000
  -1582487.63049  -1217636.85947  21019402.202    21019401.271    21019408.657
       242.000         209.000
    665023.48549    511626.39146  23649744.409    23649743.283    23649752.930
       227.000         177.000
                    449866.39944  25120884.810
       185.000         101.000
  -1172308.61549   -814835.52647  20764629.326    20764628.048    20764635.937
       243.000         210.000
 01 12  3 16  3  0.0000000  0  9G20G13G27G29G 4G 1G25G11G22
   -500351.33449   -383050.57047  20403024.508    20403023.299    20403029.903
       238.000         208.000
  -2407086.70449  -1859342.87846  22985180.455    22985180.036    22985187.458
       232.000         174.000
  -2185725.69249  -1669611.63345  24531831.549    24531830.718    24531841.571
       213.000         160.000
    434789.28849    331633.76645  24091944.831    24091943.692    24091956.638
       214.000         161.000
  -1315030.77449  -1012416.71445  24454044.846    24454044.177    24454052.545
       220.000         148.000
  -1663907.21249  -1281080.74447  21003908.574    21003907.685    21003915.091
       243.000         209.000
    701318.01549    539907.56146  23656651.334    23656650.137    23656659.810
       228.000         177.000
                    477928.01053  25127738.186
       177.000          92.000
  -1220524.52849   -852406.39847  20755454.244    20755452.930    20755460.802
       244.000         211.000
 01 12  3 16  3 30.0000000  0  8G20G13G27G29G 4G 1G25G22
   -519048.37249   -397619.77647  20399466.638    20399465.447    20399472.058
       237.000         209.000
  -2527183.44249  -1952924.82646  22962326.910    22962326.442    22962333.829
       231.000         175.000
  -2312456.13449  -1768362.67746  24507715.638    24507714.787    24507725.603
       215.000         164.000
    458682.31449    350251.41145  24096491.689    24096490.582    24096503.629
       214.000         160.000
  -1375841.68649  -1059801.99745  24442472.849    24442472.338    24442480.889
       218.000         150.000
  -1745086.12449  -1344337.09647  20988460.790    20988459.888    20988467.316
       243.000         209.000
    737717.56249    568270.56946  23663578.253    23663576.971    23663586.678
       228.000         176.000
  -1268010.78749   -889408.70647  20746417.965    20746416.650    20746424.545
       243.000         211.000
 01 12  3 16  4  0.0000000  0  8G20G13G27G29G 4G 1G25G22
   -537109.64249   -411693.57347  20396029.717    20396028.544    20396035.216
       237.000         208.000
  -2647157.23649  -2046410.96346  22939496.745    22939496.254    22939503.687
       231.000         176.000
  -2438972.31949  -1866946.72746  24483640.708    24483639.735    24483650.538
       217.000         165.000
    482770.96749    369021.50645  24101075.792    24101074.690    24101087.832
       216.000         162.000
  -1436073.94949  -1106736.39745  24431011.267    24431010.670    24431019.230
       220.000         149.000
  -1826027.23349  -1407408.14747  20973058.264    20973057.356    20973064.792
       243.000         209.000
    774217.28649    596711.63446  23670524.127    23670522.878    23670532.593
       227.000         177.000
  -1314770.91349   -925845.19947  20737519.847    20737518.540    20737526.449
       243.000         210.000
 01 12  3 16  4 30.0000000  0  8G20G13G27G29G 4G 1G25G22
   -554540.12649   -425275.85747  20392712.852    20392711.692    20392718.417
       237.000         208.000
  -2767012.20149  -2139804.50846  22916689.159    22916688.685    22916696.125
       230.000         175.000
  -2565278.38749  -1965367.02046  24459605.924    24459604.745    24459615.565
       218.000         166.000
    507050.88949    387940.62545  24105696.332    24105695.233    24105708.374
       214.000         161.000
  -1495732.56349  -1153223.79045  24419658.777    24419658.145    24419666.668
       222.000         150.000
  -1906734.24249  -1470296.78347  20957700.295    20957699.375    20957706.813
       242.000         209.000
    810811.35249    625226.21846  23677487.983    23677486.718    23677496.500
       228.000         175.000
  -1360809.44749   -961719.41547  20728759.066    20728757.739    20728765.650
       243.000         210.000
 01 12  3 16  5  0.0000000  0  8G20G13G27G29G 4G 1G25G22
   -571341.98749   -438368.30647  20389515.644    20389514.470    20389521.221
       238.000         209.000
  -2886749.38549  -2233106.28046  22893903.951    22893903.476    22893910.980
       230.000         175.000
  -2691375.39749  -2063624.46746  24435610.686    24435609.428    24435620.415
       219.000         169.000
    531520.23249    407007.36845  24110352.995    24110351.810    24110364.988
       213.000         161.000
  -1554819.08149  -1199265.39145  24408415.270    24408414.501    24408423.137
       222.000         151.000
  -1987207.85649  -1533003.55347  20942386.718    20942385.800    20942393.274
       242.000         209.000
    847497.08749    653812.22746  23684469.297    23684468.003    23684477.804
       228.000         174.000
  -1406127.91049   -997032.53847  20720135.231    20720133.967    20720141.866
       243.000         210.000
 01 12  3 16  5 29.9990000  0  8G20G13G27G29G 4G 1G25G22
   -587510.27149   -450967.05947  20386439.027    20386437.818    20386444.592
       236.000         208.000
  -3006358.99049  -2326308.63646  22871143.041    22871142.578    22871150.087
       230.000         176.000
  -2817253.77549  -2161711.51546  24411656.839    24411655.640    24411666.845
       218.000         171.000
    556183.48249    426225.18945  24115046.457    24115045.289    24115058.491
       213.000         160.000
  -1613326.79249  -1244855.99845  24397281.664    24397280.983    24397289.656
       220.000         149.000
  -2067439.50849  -1595521.78247  20927119.206    20927118.272    20927125.762
       243.000         210.000
    884277.10649    682471.71046  23691468.533    23691467.220    23691477.039
       226.000         174.000
  -1450719.82449  -1031779.52347  20711649.730    20711648.452    20711656.365
       243.000         210.000
 01 12  3 16  5 59.9990000  0  8G20G13G27G29G 4G 1G25G22
   -603054.70449   -463079.69047  20383481.086    20383479.874    20383486.670
       236.000         208.000
  -3125856.56049  -2419423.67846  22848403.475    22848403.024    22848410.549
       230.000         177.000
  -2942929.54049  -2259640.63046  24387741.310    24387740.289    24387751.749
       215.000         170.000
    581034.21449    445589.13045  24119775.685    24119774.481    24119787.752
       215.000         159.000
  -1671267.80049  -1290004.99145  24386255.983    24386255.324    24386264.113
       221.000         150.000
  -2147441.74949  -1657861.24547  20911895.343    20911894.410    20911901.922
       243.000         210.000
    921144.56649    711199.30946  23698484.341    23698483.086    23698492.950
       225.000         173.000
  -1494596.06149  -1065968.83947  20703300.419    20703299.116    20703307.057
       243.000         210.000
 01 12  3 16  6 29.9990000  0  8G20G13G27G29G 4G 1G25G22
   -617978.04949   -474708.35247  20380641.315    20380640.123    20380646.951
       236.000         208.000
  -3245240.56949  -2512450.22946  22825685.521    22825685.058    22825692.613
       231.000         177.000
  -3068401.07649  -2357410.60246  24363864.541    24363863.761    24363875.283
       218.000         169.000
    606068.55049    465096.12445  24124539.814    24124538.609    24124551.942
       212.000         158.000
  -1728643.50449  -1334713.49645  24375337.865    24375337.212    24375346.072
       220.000         151.000
  -2227214.16849  -1720021.62347  20896715.232    20896714.288    20896721.803
       242.000         210.000
    958094.10549    739990.88346  23705515.721    23705514.546    23705524.478
       225.000         172.000
  -1537758.31849  -1099601.81447  20695086.943    20695085.652    20695093.603
       243.000         210.000
 01 12  3 16  6 59.9990000  0  8G20G13G27G29G 4G 1G25G22
   -632278.63349   -485851.75447  20377920.098    20377918.886    20377925.720
       236.000         208.000
  -3364508.03649  -2605385.97746  22802989.762    22802989.315    22802996.825
       231.000         178.000
  -3193665.60049  -2455019.29046  24340027.485    24340026.728    24340038.124
       218.000         167.000
    631288.95349    484748.12045  24129339.255    24129338.072    24129351.513
       211.000         158.000
  -1785451.62649  -1378979.74045  24364527.701    24364527.076    24364536.080
       221.000         152.000
  -2306753.48949  -1782000.36647  20881579.489    20881578.518    20881586.038
       243.000         210.000
    995126.58149    768847.07046  23712562.894    23712561.791    23712571.792
       223.000         171.000
  -1580204.23849  -1132676.60747  20687009.810    20687008.513    20687016.456
       245.000         210.000
 01 12  3 16  7 29.9990000  0  8G20G13G27G29G 4G 1G25G22
   -645960.38249   -496512.94447  20375316.637    20375315.423    20375322.252
       236.000         208.000
  -3483661.09649  -2698232.55446  22780315.725    22780315.286    22780322.858
       230.000         179.000
  -3318725.60749  -2552468.57246  24316229.498    24316228.677    24316239.915
       217.000         167.000
    656692.56449    504542.86545  24134173.464    24134172.408    24134185.971
       212.000         156.000
  -1841695.27549  -1422806.14045  24353825.132    24353824.388    24353833.400
       219.000         151.000
  -2386061.89549  -1843799.17247  20866487.651    20866486.682    20866494.215
       242.000         209.000
   1032238.06449    797764.83046  23719625.161    23719624.056    23719634.149
       224.000         170.000
  -1621936.83849  -1165195.56247  20679068.409    20679067.110    20679075.040
       245.000         210.000
 01 12  3 16  7 59.9990000  0  8G20G13G27G29G 4G 1G25G22
   -659023.49249   -506692.07947  20372830.858    20372829.658    20372836.507
       236.000         207.000
  -3602698.76249  -2790989.22546  22757663.650    22757663.213    22757670.831
       232.000         179.000
  -3443580.41649  -2649757.91746  24292470.644    24292469.711    24292480.900
       220.000         172.000
    682279.68649    524480.60245  24139042.863    24139041.681    24139055.289
       210.000         156.000
  -1897374.81849  -1466192.96445  24343229.806    24343229.071    24343238.053
       222.000         150.000
  -2465138.23349  -1905417.14947  20851439.948    20851439.004    20851446.544
       242.000         209.000
   1069427.48249    826743.31546  23726702.244    23726701.168    23726711.321
       224.000         170.000
  -1662956.07949  -1197158.66547  20671262.742    20671261.445    20671269.386
       244.000         210.000
 01 12  3 16  8 29.9990000  0  8G20G13G27G29G 4G 1G25G22
   -671467.15449   -516388.52947  20370462.971    20370461.768    20370468.641
       236.000         208.000
  -3721619.17649  -2883654.53446  22735034.039    22735033.510    22735041.069
       231.000         179.000
  -3568228.14449  -2746885.93746  24268751.166    24268750.146    24268761.361
       220.000         171.000
    708051.82149    544562.50245  24143947.389    24143946.192    24143959.850
       209.000         154.000
  -1952488.78849  -1509139.09245  24332742.187    24332741.353    24332750.242
       221.000         151.000
  -2543980.38249  -1966852.64447  20836436.839    20836435.904    20836443.428
       243.000         209.000
   1106695.17149    855782.79146  23733794.221    23733793.153    23733803.385
       223.000         169.000
  -1703260.55049  -1228564.80947  20663593.077    20663591.797    20663599.734
       244.000         211.000
 01 12  3 16  8 59.9990000  0  8G20G13G27G29G 4G 1G25G22
   -683291.56249   -525602.44147  20368212.971    20368211.745    20368218.625
       237.000         208.000
  -3840421.17849  -2976227.55246  22712426.798    22712426.317    22712433.843
       231.000         179.000
  -3692667.94649  -2843851.93946  24245071.084    24245070.055    24245081.392
       219.000         166.000
    734009.46449    564788.94745  24148887.032    24148885.950    24148899.709
       208.000         154.000
  -2007037.04249  -1551644.37845  24322362.025    24322361.312    24322370.257
       221.000         151.000
  -2622586.98049  -2028104.58447  20821478.578    20821477.623    20821485.145
       242.000         209.000
   1144040.79349    884882.98846  23740901.068    23740899.989    23740910.252
       222.000         170.000
  -1742850.02149  -1259413.81647  20656059.507    20656058.235    20656066.174
       245.000         211.000
 01 12  3 16  9 29.9990000  0  8G20G13G27G29G 4G 1G25G22
   -694506.07549   -534341.10847  20366078.967    20366077.762    20366084.671
       236.000         208.000
  -3959112.53649  -3068714.36346  22689840.636    22689840.142    22689847.735
       230.000         179.000
  -3816908.16549  -2940662.43646  24221428.732    24221427.872    24221439.385
       218.000         168.000
    760144.02549    585153.26945  24153860.508    24153859.406    24153873.272
       210.000         154.000
  -2061028.63149  -1593715.90745  24312088.020    24312087.284    24312096.174
       219.000         151.000
  -2700965.77449  -2089179.02147  20806563.646    20806562.702    20806570.190
       243.000         209.000
   1181454.35549    914036.12446  23748020.935    23748019.747    23748030.039
       222.000         168.000
  -1781733.25649  -1289712.50547  20648660.341    20648659.056    20648666.997
       245.000         211.000
 01 12  3 16  9 59.9990000  0  8G20G13G27G29G 4G 1G25G22
   -705101.49649   -542597.36947  20364062.787    20364061.580    20364068.513
       237.000         208.000
  -4077682.76949  -3161106.79246  22667277.524    22667277.038    22667284.697
       232.000         179.000
  -3940938.26749  -3037309.19346  24197826.300    24197825.633    24197837.323
       219.000         171.000
    786465.31249    605663.07545  24158869.595    24158868.431    24158882.369
       209.000         154.000
  -2114453.94549  -1635346.20945  24301921.565    24301920.847    24301929.795
       217.000         149.000
  -2779106.01149  -2150067.56847  20791694.150    20791693.185    20791700.645
       243.000         209.000
   1218945.02849    943249.36146  23755155.342    23755154.193    23755164.554
       222.000         169.000
  -1819900.53749  -1319453.31447  20641397.392    20641396.113    20641404.056
       245.000         211.000
 01 12  3 16 10 29.9990000  0  8G20G13G27G29G 4G 1G25G22
   -715084.17549   -550376.16147  20362163.213    20362161.998    20362168.968
       237.000         208.000
  -4196136.63549  -3253408.53546  22644736.479    22644736.041    22644743.792
       231.000         179.000
  -4064763.51249  -3133796.32546  24174262.909    24174262.350    24174274.115
       219.000         166.000
    812967.98549    626314.24545  24163913.224    24163911.975    24163925.978
       212.000         155.000
  -2167318.98849  -1676539.89145  24291861.673    24291861.117    24291870.104
       218.000         149.000
  -2857012.22449  -2210773.75047  20776869.165    20776868.191    20776875.626
       243.000         208.000
   1256505.91049    972517.29246  23762303.219    23762301.992    23762312.444
       221.000         170.000
  -1857357.71749  -1348640.79847  20634269.547    20634268.294    20634276.239
       245.000         211.000
 01 12  3 16 10 59.9990000  0  8G20G13G27G29G 4G 1G25G22
   -724469.30949   -557689.34447  20360377.327    20360376.141    20360383.137
       237.000         208.000
  -4314488.01849  -3345630.43546  22622215.016    22622214.566    22622222.341
       231.000         179.000
  -4188398.08449  -3230134.88546  24150735.994    24150735.410    24150746.993
       222.000         167.000
    839637.41749    647095.34145  24168988.408    24168987.206    24169001.252
       212.000         155.000
  -2219638.64549  -1717308.61645  24281905.638    24281905.121    24281914.150
       218.000         148.000
  -2934698.14749  -2271308.28847  20762086.077    20762085.116    20762092.516
       242.000         209.000
   1294121.36749   1001827.73846  23769461.407    23769460.187    23769470.735
       221.000         170.000
  -1894119.61449  -1377286.50947  20627274.108    20627272.804    20627280.741
       245.000         211.000
 01 12  3 16 11 29.9990000  0  8G20G13G27G29G 4G 1G25G22
   -733246.50849   -564528.80347  20358707.132    20358705.955    20358712.993
       237.000         208.000
  -4432725.01749  -3437763.18246  22599715.248    22599714.835    22599722.693
       231.000         179.000
  -4311830.41349  -3326315.86446  24127247.817    24127247.078    24127258.452
       226.000         173.000
    866485.03649    668015.28045  24174097.611    24174096.400    24174110.452
       213.000         153.000
  -2271402.13149  -1757643.96345  24272055.369    24272054.977    24272064.136
       217.000         148.000
  -3012151.69449  -2331661.74147  20747347.236    20747346.256    20747353.644
       243.000         209.000
   1331801.55749   1031188.64846  23776631.783    23776630.714    23776641.315
       222.000         171.000
  -1930175.26349  -1405381.90247  20620413.046    20620411.706    20620419.667
       245.000         212.000
 01 12  3 16 11 59.9990000  0  8G20G13G27G29G 4G 1G25G22
   -741415.87349   -570894.62647  20357152.632    20357151.439    20357158.519
       237.000         208.000
  -4550846.09049  -3529805.60246  22577237.559    22577237.190    22577245.044
       231.000         179.000
  -4435059.24049  -3422338.23746  24103798.306    24103797.462    24103808.710
       223.000         171.000
    893511.50149    689074.58345  24179240.916    24179239.653    24179253.712
       210.000         152.000
  -2322608.95749  -1797545.56345  24262311.221    24262310.832    24262320.058
       218.000         145.000
  -3089371.18849  -2391832.82647  20732652.882    20732651.916    20732659.299
       242.000         209.000
   1369546.22649   1060599.78146  23783814.543    23783813.494    23783824.183
       223.000         172.000
  -1965524.24449  -1432926.64547  20613686.419    20613685.085    20613693.075
       245.000         212.000
 01 12  3 16 12 29.9990000  0  8G20G13G27G29G 4G 1G25G22
   -748990.26149   -576796.82547  20355711.371    20355710.145    20355717.264
       238.000         208.000
  -4668862.21849  -3621766.24346  22554779.907    22554779.494    22554787.316
       232.000         179.000
  -4558096.15049  -3518211.09246  24080385.106    24080384.280    24080395.472
       223.000         168.000
    920705.06349    710264.08345  24184415.854    24184414.645    24184428.720
       214.000         152.000
  -2373271.61849  -1837023.10245  24252670.611    24252670.139    24252679.339
       219.000         147.000
  -3166367.68549  -2451830.14147  20718000.979    20718000.019    20718007.412
       242.000         209.000
   1407342.00349   1090050.75346  23791007.078    23791006.008    23791016.756
       221.000         172.000
  -2000178.86149  -1459930.32547  20607091.961    20607090.607    20607098.623
       245.000         212.000
 01 12  3 16 12 59.9990000  0  8G20G13G27G29G 4G 1G25G22
   -755964.87149   -582231.66747  20354384.200    20354382.978    20354390.138
       238.000         209.000
  -4786767.43749  -3713640.46846  22532343.320    22532342.927    22532350.689
       232.000         180.000
  -4680935.25449  -3613929.85546  24057009.357    24057008.670    24057019.902
       221.000         168.000
    948071.25749    731588.11045  24189623.708    24189622.504    24189636.660
       211.000         150.000
  -2423385.20149  -1876072.80245  24243134.472    24243133.935    24243143.271
       215.000         147.000
  -3243134.68749  -2511648.62847  20703392.772    20703391.805    20703399.202
       243.000         209.000
   1445193.83849   1119545.39146  23798210.208    23798209.166    23798220.018
       222.000         172.000
  -2034134.06749  -1486389.01147  20600630.601    20600629.218    20600637.252
       245.000         212.000
 01 12  3 16 13 29.9990000  0  8G20G13G27G29G 4G 1G25G22
   -762340.48349   -587199.75647  20353171.010    20353169.795    20353176.991
       238.000         209.000
  -4904560.87249  -3805427.57146  22509927.999    22509927.608    22509935.409
       232.000         179.000
  -4803576.07849  -3709494.07946  24033671.265    24033670.741    24033682.212
       219.000         166.000
    975610.00449    753046.59145  24194864.423    24194863.201    24194877.426
       216.000         151.000
  -2472950.03449  -1914694.90145  24233702.683    24233702.149    24233711.643
       219.000         148.000
  -3319671.32349  -2571287.60747  20688828.378    20688827.410    20688834.814
       243.000         209.000
   1483100.61949   1149082.85746  23805423.900    23805422.833    23805433.749
       223.000         172.000
  -2067390.10449  -1512302.88647  20594302.261    20594300.873    20594308.932
       245.000         212.000
 01 12  3 16 13 59.9990000  0  8G20G13G27G29G 4G 1G25G22
   -768125.10749   -591707.33847  20352070.327    20352069.082    20352076.314
       239.000         209.000
  -5022248.77349  -3897132.45646  22487532.796    22487532.412    22487540.247
       232.000         179.000
  -4926025.21849  -3804908.94246  24010369.761    24010369.307    24010380.943
       219.000         167.000
   1003314.42949    774634.19045  24200136.650    24200135.402    24200149.772
       212.000         150.000
  -2521973.62849  -1952895.27645  24224374.046    24224373.485    24224382.768
       218.000         147.000
  -3395983.45749  -2630751.65347  20674306.680    20674305.724    20674313.133
       244.000         208.000
   1521054.03749   1178656.65046  23812646.504    23812645.385    23812656.373
       224.000         173.000
  -2099954.59649  -1537677.90947  20588105.529    20588104.124    20588112.200
       245.000         212.000
 01 12  3 16 14 29.9990000  0  8G20G13G27G29G 4G 1G25G22
   -773319.75849   -595755.19847  20351081.914    20351080.658    20351087.902
       239.000         209.000
  -5139830.36749  -3988754.50946  22465157.760    22465157.398    22465165.218
       232.000         179.000
  -5048282.60149  -3900174.43446  23987105.120    23987104.495    23987116.110
       217.000         164.000
   1031184.37949    796350.75445  24205440.365    24205439.106    24205453.534
       210.000         147.000
  -2570456.56049  -1990674.35145  24215148.240    24215147.638    24215156.891
       220.000         148.000
  -3472070.36849  -2690040.20047  20659827.864    20659826.906    20659834.329
       244.000         209.000
   1559053.26249   1208266.14046  23819877.787    23819876.647    23819887.752
       223.000         174.000
  -2131827.80949  -1562514.26647  20582040.312    20582038.906    20582047.029
       245.000         212.000
 01 12  3 16 14 59.9990000  0  8G20G13G27G29G 4G 1G25G22
   -777923.14249   -599342.33047  20350205.965    20350204.731    20350211.989
       239.000         209.000
  -5257302.57549  -4080291.32946  22442803.534    22442803.198    22442811.034
       231.000         179.000
  -5170345.52249  -3995288.34146  23963877.485    23963876.755    23963888.303
       220.000         165.000
   1059222.15149    818198.07345  24210775.808    24210774.746    24210789.187
       214.000         146.000
  -2618397.17849  -2028030.82545  24206025.551    24206025.011    24206034.253
       219.000         147.000
  -3547928.74549  -2749150.67447  20645392.544    20645391.588    20645398.996
       244.000         209.000
   1597099.66049   1237912.38646  23827118.111    23827116.899    23827128.102
       223.000         173.000
  -2163008.19249  -1586810.75347  20576106.952    20576105.551    20576113.695
       245.000         212.000
 01 12  3 16 15 29.9990000  0  8G20G13G27G29G 4G 1G25G22
   -781941.89349   -602473.90347  20349441.237    20349440.044    20349447.332
       239.000         209.000
  -5374670.31849  -4171746.73246  22420469.221    22420468.874    22420476.746
       232.000         179.000
  -5292219.35149  -4090254.93346  23940685.778    23940685.007    23940696.436
       221.000         168.000
   1087421.98249    840171.67645  24216142.239    24216141.281    24216155.613
       212.000         147.000
  -2665801.88149  -2064969.74245  24197004.695    24197004.253    24197013.656
       220.000         151.000
  -3623563.32649  -2808086.75747  20630999.795    20630998.851    20631006.257
       244.000         209.000
   1635186.32849   1267590.01546  23834366.067    23834364.809    23834376.091
       223.000         171.000
  -2193502.00949  -1610572.24747  20570304.239    20570302.852    20570311.006
       245.000         212.000
 01 12  3 16 15 59.9990000  0  8G20G13G27G29G 4G 1G25G22
   -785372.81449   -605147.42947  20348788.441    20348787.225    20348794.519
       240.000         209.000
  -5491928.97449  -4263117.14546  22398155.670    22398155.306    22398163.174
       231.000         178.000
  -5413899.64449  -4185070.73445  23917530.635    23917529.955    23917541.361
       218.000         162.000
   1115788.10349    862274.85445  24221540.420    24221539.382    24221553.720
       214.000         145.000
  -2712667.12349  -2101488.24945  24188086.898    24188086.257    24188095.668
       216.000         146.000
  -3698969.31649  -2866844.71947  20616650.576    20616649.619    20616657.021
       245.000         209.000
   1673316.26949   1297301.37146  23841622.274    23841620.947    23841632.283
       221.000         171.000
  -2223305.79049  -1633796.04847  20564632.815    20564631.451    20564639.622
       245.000         211.000
 01 12  3 16 16 29.9990000  0  8G20G13G27G29G 4G 1G25G22
   -788215.81149   -607362.83847  20348247.521    20348246.298    20348253.586
       240.000         208.000
  -5609076.25349  -4354400.76246  22375863.244    22375862.927    22375870.781
       232.000         178.000
  -5535384.73549  -4279734.45246  23894412.673    23894412.023    23894423.396
       219.000         166.000
   1144321.45249    884508.32345  24226970.326    24226969.266    24226983.714
       212.000         145.000
  -2758992.15649  -2137585.83245  24179271.578    24179270.975    24179280.491
       220.000         151.000
  -3774144.41549  -2925422.76147  20602345.249    20602344.321    20602351.727
       244.000         209.000
   1711489.69849   1327046.59946  23848886.654    23848885.344    23848896.734
       222.000         169.000
  -2252418.79649  -1656481.58547  20559092.901    20559091.503    20559099.678
       245.000         212.000
 01 12  3 16 16 59.9990000  0  8G20G13G27G29G 4G 1G25G22
   -790471.05349   -609120.25347  20347818.451    20347817.206    20347824.498
       239.000         209.000
  -5726110.34649  -4445596.17646  22353592.436    22353592.121    22353599.959
       233.000         179.000
  -5656673.40649  -4374245.09046  23871332.110    23871331.535    23871342.940
       219.000         167.000
   1173023.38849    906873.16845  24232432.247    24232431.215    24232445.754
       211.000         146.000
  -2804776.72249  -2173262.26145  24170559.240    24170558.568    24170568.234
       217.000         149.000
  -3849086.61949  -2983819.32847  20588084.265    20588083.334    20588090.759
       244.000         209.000
   1749706.73449   1356825.80946  23856159.324    23856158.028    23856169.479
       220.000         168.000
  -2280840.70249  -1678628.60247  20553684.453    20553683.066    20553691.257
       245.000         211.000
 01 12  3 16 17 29.9990000  0  8G20G13G27G29G 4G 1G25G22
   -792120.46249   -610405.58947  20347504.625    20347503.399    20347510.711
       240.000         209.000
  -5843011.42549  -4536687.95146  22331346.940    22331346.601    22331354.474
       233.000         179.000
  -5777746.43449  -4468587.72446  23848292.821    23848292.115    23848303.462
       219.000         165.000
   1201912.61649    929383.92445  24237929.973    24237928.887    24237943.420
       213.000         145.000
  -2850002.59749  -2208503.37345  24161953.129    24161952.480    24161962.209
       221.000         148.000
  -3923775.97149  -3042018.87047  20573871.389    20573870.468    20573877.899
       244.000         209.000
   1787985.40249   1386653.01846  23863443.792    23863442.447    23863453.977
       219.000         166.000
  -2308553.09849  -1700222.75447  20548411.069    20548409.644    20548417.846
       245.000         211.000
 01 12  3 16 17 59.9990000  0  8G20G13G27G29G 4G 1G25G22
   -793193.17449   -611241.55647  20347300.574    20347299.347    20347306.666
       241.000         209.000
  -5959806.83149  -4627697.37846  22309121.473    22309121.192    22309129.056
       232.000         180.000
  -5898631.55249  -4562783.95346  23825289.259    23825288.491    23825299.686
       219.000         166.000
   1230961.18449    952018.82845  24243457.956    24243456.913    24243471.306
       210.000         146.000
  -2894698.54249  -2243331.52545  24153447.863    24153447.232    24153456.976
       219.000         147.000
  -3998239.60249  -3100042.52447  20559701.467    20559700.540    20559708.000
       244.000         209.000
   1826296.79749   1416505.72946  23870734.434    23870733.111    23870744.713
       220.000         166.000
  -2335584.90049  -1721286.56847  20543267.147    20543265.732    20543273.928
       245.000         210.000
 01 12  3 16 18 29.9990000  0  8G20G13G27G29G 4G 1G25G22
   -793693.59549   -611631.58347  20347205.454    20347204.194    20347211.523
       240.000         208.000
  -6076498.93049  -4718626.31446  22286915.746    22286915.427    22286923.322
       234.000         180.000
  -6019331.64849  -4656835.95846  23802320.864    23802320.062    23802331.239
       220.000         168.000
   1260165.82149    974775.32645  24249015.664    24249014.559    24249029.238
       210.000         146.000
  -2938868.43449  -2277749.75745  24145042.696    24145042.062    24145051.917
       219.000         154.000
  -4072479.83449  -3157892.10747  20545574.011    20545573.124    20545580.615
       243.000         209.000
   1864636.81249   1446380.77046  23878030.505    23878029.208    23878040.896
       214.000         164.000
  -2361939.92449  -1741823.02747  20538251.952    20538250.582    20538258.792
       244.000         210.000
 01 12  3 16 18 59.9990000  0  8G20G13G27G29G 4G 1G25G22
   -793627.65049   -611580.28647  20347218.045    20347216.822    20347224.127
       240.000         208.000
  -6193091.67349  -4809477.82346  22264728.940    22264728.600    22264736.465
       234.000         181.000
  -6139851.19249  -4750747.31046  23779386.664    23779385.941    23779397.081
       219.000         166.000
   1289521.65249    997649.61845  24254602.265    24254601.061    24254615.804
       210.000         146.000
  -2982517.85449  -2311762.42345  24136736.668    24136736.061    24136745.971
       220.000         151.000
  -4146500.49749  -3215570.59347  20531488.349    20531487.494    20531495.000
       244.000         209.000
   1902999.48949   1476273.44045  23885330.804    23885329.598    23885341.433
       218.000         162.000
  -2387623.76349  -1761836.47847  20533364.502    20533363.157    20533371.401
       245.000         211.000
 01 12  3 16 19 29.9990000  0  8G20G13G27G29G 4G 1G25G22
   -792980.00449   -611075.71947  20347341.370    20347340.142    20347347.429
       241.000         209.000
  -6309567.98249  -4900238.60646  22242564.289    22242563.925    22242571.772
       234.000         182.000
  -6260173.69549  -4844505.15146  23756489.955    23756489.332    23756500.452
       219.000         167.000
   1319044.79949   1020654.28245  24260220.654    24260219.366    24260234.180
       210.000         146.000
  -3025631.31249  -2345357.48645  24128532.493    24128531.939    24128541.919
       219.000         150.000
  -4220284.35549  -3273064.55847  20517447.799    20517446.928    20517454.445
       244.000         209.000
   1941400.32849   1506195.85745  23892638.352    23892637.261    23892649.171
       217.000         161.000
  -2412621.07349  -1781314.97747  20528607.738    20528606.392    20528614.666
       244.000         211.000
 01 12  3 16 19 59.9990000  0  8G20G13G27G29G 4G 1G25G22
   -791760.85549   -610125.82347  20347573.479    20347572.216    20347579.522
       241.000         208.000
  -6425935.80049  -4990914.85246  22220420.236    22220419.897    22220427.719
       233.000         182.000
  -6380307.51449  -4938115.93546  23733629.184    23733628.576    23733639.845
       221.000         170.000
   1348726.56849   1043782.52545  24265869.160    24265867.865    24265882.708
       208.000         146.000
  -3068218.55149  -2378542.49545  24120428.618    24120428.016    24120438.018
       218.000         146.000
  -4293839.25049  -3330380.10847  20503450.831    20503449.932    20503457.471
       244.000         209.000
   1979829.21949   1536140.12645  23899951.357    23899950.265    23899962.251
       217.000         161.000
  -2436941.22849  -1800265.82047  20523979.815    20523978.475    20523986.787
       244.000         211.000
 01 12  3 16 20 29.9990000  0  8G20G13G27G29G 4G 1G25G22
   -789976.83149   -608735.76547  20347913.014    20347911.779    20347919.111
       241.000         208.000
  -6542199.79849  -5081510.19846  22198295.982    22198295.632    22198303.422
       234.000         182.000
  -6500257.81849  -5031583.75246  23710803.508    23710802.836    23710814.116
       221.000         171.000
   1378561.52149   1067030.11445  24271546.717    24271545.548    24271560.466
       208.000         147.000
  -3110285.59049  -2411322.11745  24112423.644    24112423.017    24112432.972
       219.000         148.000
  -4367169.52249  -3387520.63347  20489496.553    20489495.679    20489503.248
       244.000         209.000
   2018279.88849   1566101.35145  23907268.428    23907267.422    23907279.460
       216.000         160.000
  -2460590.62949  -1818693.99647  20519479.525    20519478.188    20519486.518
       244.000         210.000
 01 12  3 16 20 59.9990000  0  8G20G13G27G29G 4G 1G25G22
   -787621.43449   -606900.48647  20348361.258    20348360.056    20348367.419
       241.000         209.000
  -6658351.21949  -5172017.81746  22176193.110    22176192.783    22176200.580
       235.000         184.000
  -6620016.57949  -5124902.29746  23688014.365    23688013.572    23688024.810
       223.000         172.000
   1408557.07449   1090402.82545  24277254.964    24277253.753    24277268.813
       207.000         147.000
  -3151825.46249  -2443690.99445  24104519.202    24104518.387    24104528.312
       220.000         147.000
  -4440266.50249  -3444479.37147  20475586.693    20475585.822    20475593.405
       243.000         209.000
   2056759.49249   1596085.12845  23914591.113    23914590.098    23914602.141
       216.000         159.000
  -2483562.53849  -1836594.25747  20515108.203    20515106.844    20515115.170
       245.000         210.000
 01 12  3 16 21 29.9990000  0  8G20G13G27G29G 4G 1G25G22
   -784695.41749   -604620.57347  20348918.176    20348916.959    20348924.304
       241.000         209.000
  -6774388.90949  -5262436.81546  22154111.859    22154111.559    22154119.426
       235.000         184.000
  -6739583.29449  -5218071.19346  23665261.672    23665260.874    23665272.080
       224.000         175.000
   1438713.65249   1113901.00845  24282993.974    24282992.658    24283007.901
       204.000         149.000
  -3192838.82449  -2475649.62545  24096714.558    24096713.919    24096723.811
       219.000         150.000
  -4513128.86249  -3501255.29347  20461721.455    20461720.619    20461728.229
       243.000         209.000
   2095266.94549   1626090.62145  23921919.216    23921918.106    23921930.241
       217.000         159.000
  -2505857.18649  -1853966.77847  20510865.749    20510864.392    20510872.703
       245.000         210.000
 01 12  3 16 21 59.9990000  0  8G20G13G27G29G 4G 1G25G22
   -781195.83749   -601893.72947  20349584.234    20349582.992    20349590.332
       241.000         209.000
  -6890307.60849  -5352763.09146  22132053.310    22132053.003    22132060.870
       235.000         185.000
  -6858953.31349  -5311086.82946  23642546.297    23642545.503    23642556.661
       223.000         172.000
   1469035.69549   1137528.10345  24288764.444    24288763.102    24288778.451
       206.000         146.000
  -3233322.21649  -2507195.20845  24089011.050    24089010.324    24089020.243
       218.000         150.000
  -4585751.13149  -3557844.12647  20447901.946    20447901.091    20447908.738
       243.000         209.000
   2133805.85449   1656120.61545  23929253.194    23929252.047    23929264.272
       218.000         159.000
  -2527471.35349  -1870809.05547  20506752.747    20506751.407    20506759.743
       244.000         210.000
 01 12  3 16 22 29.9980000  0  8G20G13G27G29G 4G 1G25G22
   -777133.57549   -598728.43447  20350357.326    20350356.089    20350363.447
       241.000         209.000
  -7006111.78249  -5443000.14046  22110016.561    22110016.257    22110024.073
       235.000         184.000
  -6978131.69049  -5403953.15046  23619867.331    23619866.595    23619877.710
       223.000         174.000
   1499512.70349   1161275.95945  24294564.410    24294563.026    24294578.393
       202.000         146.000
  -3273284.41449  -2538334.74045  24081406.433    24081405.786    24081415.950
       220.000         148.000
  -4658139.28449  -3614250.53447  20434126.977    20434126.110    20434133.792
       243.000         209.000
   2172364.73649   1686166.16645  23936591.134    23936589.774    23936602.134
       218.000         161.000
  -2548414.61049  -1887128.54047  20502767.440    20502766.098    20502774.441
       244.000         210.000
 01 12  3 16 22 59.9980000  0  8G20G13G27G29G 4G 1G25G22
   -772517.17449   -595131.34347  20351235.833    20351234.619    20351242.006
       241.000         209.000
  -7121816.09649  -5533159.37846  22087998.785    22087998.471    22088006.272
       236.000         185.000
  -7097133.93749  -5496682.19546  23597221.988    23597221.219    23597232.366
       224.000         174.000
   1530138.75349   1185139.92545  24300392.799    24300391.314    24300406.762
       200.000         144.000
  -3312736.99949  -2569077.14145  24073899.006    24073898.393    24073908.401
       218.000         149.000
  -4730304.84149  -3670483.48947  20420394.342    20420393.495    20420401.209
       243.000         209.000
   2210937.82849   1716222.78945  23943931.722    23943930.232    23943942.738
       219.000         162.000
  -2568697.19449  -1902933.21447  20498907.919    20498906.533    20498914.871
       244.000         210.000
 01 12  3 16 23 29.9980000  0  8G20G13G27G29G 4G 1G25G22
   -767330.33149   -591089.75347  20352222.977    20352221.730    20352229.134
       241.000         209.000
  -7237398.10849  -5623223.31446  22066004.318    22066004.004    22066011.758
       236.000         186.000
  -7215938.12849  -5589256.95146  23574614.493    23574613.624    23574624.740
       226.000         176.000
   1560930.57949   1209133.06845  24306252.651    24306251.140    24306266.647
       200.000         143.000
  -3351661.50449  -2599408.10945  24066491.952    24066491.375    24066501.423
       219.000         148.000
  -4802226.51449  -3726526.40747  20406708.116    20406707.292    20406715.037
       242.000         209.000
   2249540.68049   1746302.60946  23951277.916    23951276.352    23951288.970
       220.000         163.000
  -2588301.39549  -1918209.27747  20495177.414    20495176.035    20495184.396
       244.000         210.000
 01 12  3 16 23 59.9980000  0  8G20G13G27G29G 4G 1G25G22
   -761580.96649   -586609.83847  20353317.168    20353315.905    20353323.314
       241.000         209.000
  -7352863.34449  -5713196.25246  22044032.115    22044031.750    22044039.506
       237.000         187.000
  -7334550.35949  -5681682.11746  23552043.380    23552042.515    23552053.693
       225.000         176.000
   1591881.81249   1233250.41045  24312142.945    24312141.300    24312156.848
       198.000         141.000
  -3390065.57949  -2629333.50745  24059184.135    24059183.491    24059193.558
       219.000         150.000
  -4873909.90049  -3782383.64147  20393067.288    20393066.443    20393074.207
       243.000         209.000
   2288165.94149   1776399.86946  23958628.395    23958626.771    23958639.446
       221.000         164.000
  -2607234.85949  -1932962.68647  20491574.545    20491573.184    20491581.552
       244.000         210.000
 01 12  3 16 24 29.9980000  0  8G20G13G27G29G 4G 1G25G22
   -755267.54849   -581690.40347  20354518.648    20354517.384    20354524.849
       241.000         209.000
  -7468207.99749  -5803075.23246  22022082.774    22022082.413    22022090.186
       237.000         187.000
  -7452967.45049  -5773955.20946  23529509.352    23529508.519    23529519.799
       226.000         177.000
   1622995.04149   1257493.97845  24318063.676    24318062.277    24318077.868
       196.000         142.000
  -3427947.23149  -2658851.80245  24051975.555    24051974.962    24051984.978
       220.000         150.000
  -4945350.97149  -3838052.05847  20379472.544    20379471.699    20379479.480
       241.000         209.000
   2326815.34149   1806515.94746  23965983.367    23965981.781    23965994.496
       220.000         166.000
  -2625495.84449  -1947192.09147  20488099.641    20488098.285    20488106.676
       244.000         210.000
 01 12  3 16 24 59.9980000  0  8G20G13G27G29G 4G 1G25G22
   -748396.90849   -576336.76647  20355826.133    20355824.890    20355832.392
       241.000         209.000
  -7583436.48049  -5892863.68247  22000155.515    22000155.199    22000162.995
       236.000         188.000
  -7571194.57149  -5866080.28746  23507011.487    23507010.634    23507022.009
       224.000         174.000
   1654264.79749   1281859.50445  24324014.652    24324013.136    24324028.694
       199.000         142.000
  -3465312.77249  -2687967.96245  24044865.230    24044864.627    24044874.899
       219.000         151.000
  -5016554.24449  -3893535.17447  20365923.016    20365922.181    20365929.998
       241.000         208.000
   2365482.66649   1836645.97746  23973341.813    23973340.219    23973352.949
       222.000         165.000
  -2643090.71049  -1960902.44647  20484751.514    20484750.161    20484758.550
       244.000         210.000
 01 12  3 16 25 29.9980000  0  8G20G13G27G29G 4G 1G25G22
   -740972.81249   -570551.87147  20357238.930    20357237.715    20357245.250
       241.000         209.000
  -7698550.21749  -5982562.72747  21978250.175    21978249.828    21978257.630
       236.000         189.000
  -7689234.15649  -5958059.21646  23484549.166    23484548.422    23484559.842
       224.000         175.000
   1685688.63748   1306345.13045  24329994.535    24329993.182    24330008.990
       192.000         142.000
  -3502165.92049  -2716684.81545  24037852.471    24037851.846    24037862.097
       221.000         151.000
  -5087521.25349  -3948834.18747  20352418.491    20352417.649    20352425.488
       241.000         208.000
   2404164.31349   1866787.17246  23980703.020    23980701.360    23980714.186
       222.000         167.000
  -2660023.12649  -1974096.61047  20481529.424    20481528.077    20481536.477
       244.000         210.000
 01 12  3 16 25 59.9980000  0  8G20G13G27G29G 4G 1G25G22
   -732988.85949   -564330.72447  20358758.385    20358757.123    20358764.656
       241.000         209.000
  -7813540.46449  -6072165.54547  21956368.290    21956367.948    21956375.769
       237.000         189.000
  -7807077.98049  -6049885.60446  23462124.280    23462123.509    23462134.820
       224.000         174.000
   1717274.47349   1330956.97245  24336005.265    24336003.891    24336019.997
       195.000         142.000
  -3538499.48349  -2744996.84245  24030938.535    24030937.934    24030948.211
       220.000         147.000
  -5158243.07949  -4003942.14247  20338960.635    20338959.779    20338967.629
       241.000         209.000
   2442867.98249   1896945.51346  23988068.485    23988066.704    23988079.603
       222.000         168.000
  -2676286.23849  -1986769.24947  20478434.664    20478433.349    20478441.763
       243.000         210.000
 01 12  3 16 26 29.9980000  0  8G20G13G27G29G 4G 1G25G22
   -724449.01149   -557676.41047  20360383.600    20360382.309    20360389.849
       241.000         209.000
  -7928408.83849  -6161673.39047  21934509.574    21934509.243    21934517.121
       236.000         189.000
  -7924728.52249  -6141561.35546  23439736.209    23439735.402    23439746.625
       227.000         177.000
   1749019.24949   1355692.66945  24342046.464    24342045.032    24342061.412
       202.000         146.000
  -3574317.35249  -2772907.03645  24024122.836    24024122.156    24024132.462
       221.000         148.000
  -5228721.10549  -4058860.12847  20325549.166    20325548.312    20325556.158
       241.000         208.000
   2481589.82349   1927118.01146  23995437.319    23995435.529    23995448.489
       223.000         169.000
  -2691883.87349  -1998923.33347  20475466.593    20475465.273    20475473.707
       244.000         210.000
 01 12  3 16 26 59.9980000  0  8G20G13G27G29G 4G 1G25G22
   -715363.65349   -550597.02547  20362112.566    20362111.270    20362118.849
       241.000         208.000
  -8043163.21249  -6251092.41147  21912672.538    21912672.232    21912680.151
       236.000         189.000
  -8042194.32049  -6233093.14846  23417383.326    23417382.467    23417393.658
       226.000         177.000
   1780914.26849   1380545.47145  24348116.474    24348114.932    24348131.287
       202.000         145.000
  -3609629.34249  -2800423.00745  24017403.233    24017402.616    24017412.851
       219.000         144.000
  -5298963.06249  -4113594.16247  20312182.576    20312181.736    20312189.613
       241.000         208.000
   2520320.58649   1957297.44746  24002807.765    24002806.041    24002819.092
       220.000         168.000
  -2706826.03949  -2010566.66947  20472623.287    20472621.941    20472630.398
       244.000         210.000
 01 12  3 16 27 29.9980000  0  8G20G13G27G29G 4G 1G25G22
   -705732.85549   -543092.62447  20363945.289    20363943.999    20363951.639
       241.000         208.000
  -8157801.17549  -6340420.72947  21890857.706    21890857.379    21890865.321
       237.000         189.000
  -8159473.86649  -6324479.81246  23395065.822    23395064.976    23395076.179
       226.000         177.000
   1812960.63449   1405516.22145  24354215.309    24354213.549    24354229.911
       204.000         147.000
  -3644435.29149  -2827544.68245  24010780.041    24010779.326    24010789.766
       219.000         147.000
  -5368966.70949  -4168142.50047  20298861.335    20298860.513    20298868.427
       241.000         208.000
   2559060.54649   1987484.03846  24010179.943    24010178.288    24010191.385
       222.000         168.000
  -2721112.59749  -2021699.14447  20469904.709    20469903.358    20469911.822
       243.000         210.000
 01 12  3 16 27 59.9980000  0  9G20G13G27G29G 4G 1G25G 3G22
   -695557.86149   -535164.17647  20365881.624    20365880.335    20365887.979
       242.000         209.000
  -8272321.58949  -6429657.44047  21869065.177    21869064.884    21869072.834
       234.000         188.000
  -8276566.63449  -6415720.93446  23372783.692    23372782.940    23372794.326
       223.000         178.000
   1845158.60049   1430605.07145  24360342.891    24360341.075    24360357.366
       205.000         148.000
  -3678736.01149  -2854272.63745  24004252.919    24004252.194    24004262.624
       218.000         144.000
  -5438730.48449  -4222503.92747  20285585.763    20285584.942    20285592.896
       241.000         209.000
   2597809.16349   2017677.37946  24017553.840    24017552.164    24017565.313
       221.000         168.000
   -207314.76053                  24731021.974
       209.000          78.000
  -2734744.55549  -2032321.54447  20467310.683    20467309.337    20467317.821
       243.000         209.000
 01 12  3 16 28 29.9980000  0  9G20G13G27G29G 4G 1G25G 3G22
   -684834.31149   -526808.27647  20367922.369    20367921.068    20367928.720
       242.000         208.000
  -8386717.71949  -6518797.30846  21847296.261    21847295.999    21847304.013
       234.000         187.000
  -8393466.67749  -6506811.86646  23350538.337    23350537.583    23350549.111
       224.000         178.000
   1877513.87649   1455816.55545  24366500.439    24366498.537    24366514.887
       204.000         149.000
  -3712527.00049  -2880603.44345  23997822.970    23997822.150    23997832.718
       221.000         151.000
  -5508247.68749  -4276673.22047  20272357.161    20272356.300    20272364.251
       241.000         208.000
   2636571.52349   2047881.43546  24024930.356    24024928.711    24024941.872
       221.000         167.000
    -17814.20743                  24708632.388
       209.000          74.000
  -2747717.44749  -2042430.38347  20464842.074    20464840.744    20464849.239
       243.000         209.000
 01 12  3 16 28 59.9980000  0  9G20G13G27G29G 4G 1G25G 3G22
   -673566.71049   -518028.45047  20370066.567    20370065.299    20370073.006
       241.000         209.000
  -8500991.29649  -6607841.68047  21825550.671    21825550.453    21825558.534
       234.000         188.000
  -8510176.71649  -6597754.74846  23328329.178    23328328.420    23328339.973
       224.000         177.000
   1910023.19049   1481148.10145  24372687.136    24372685.319    24372701.786
       204.000         149.000
  -3745812.14349  -2906540.08345  23991489.084    23991488.326    23991498.849
       219.000         145.000
  -5577520.24149  -4330651.88347  20259175.063    20259174.219    20259182.180
       241.000         208.000
   2675343.65149   2078093.09246  24032308.763    24032307.096    24032320.301
       218.000         166.000
   -109487.91544                  24686244.782
       205.000         122.000
  -2760035.35249  -2052028.85247  20462498.123    20462496.777    20462505.309
       243.000         210.000
 01 12  3 16 29 29.9980000  0  9G20G13G27G29G 4G 1G25G 3G22
   -661754.67049   -508824.38247  20372314.342    20372313.114    20372320.868
       241.000         208.000
  -8615139.44549  -6696788.32747  21803829.027    21803828.794    21803836.907
       235.000         188.000
  -8626694.63749  -6688547.88746  23306156.631    23306155.843    23306167.311
       227.000         178.000
   1942688.74549   1506601.42145  24378903.314    24378901.581    24378918.349
       205.000         149.000
  -3778590.70549  -2932081.96745  23985251.642    23985250.927    23985261.400
       222.000         150.000
  -5646545.01749  -4384437.47347  20246040.127    20246039.273    20246047.252
       240.000         208.000
   2714127.05849   2108313.51046  24039689.288    24039687.599    24039700.904
       221.000         165.000
   -201149.25344                  24663860.519
       207.000         131.000
  -2771697.74149  -2061116.53747  20460278.924    20460277.575    20460286.130
       244.000         209.000
 01 12  3 16 29 59.9980000  0  9G20G13G27G29G 4G 1G25G 3G22
   -649389.98349   -499189.67747  20374667.351    20374666.109    20374673.895
       242.000         208.000
  -8729151.18649  -6785628.67247  21782133.363    21782133.104    21782141.228
       235.000         188.000
  -8743010.18549  -6779183.36846  23284022.611    23284021.795    23284033.092
       224.000         175.000
   1975520.22549   1532184.05145  24385151.017    24385149.492    24385166.377
       208.000         147.000
  -3810853.84849  -2957222.27245  23979112.377    23979111.576    23979122.180
       219.000         152.000
  -5715310.90949  -4438021.33347  20232954.423    20232953.596    20232961.589
       240.000         209.000
   2752931.00449   2138549.96246  24047073.787    24047072.061    24047085.424
       218.000         165.000
   -775623.91349   -292788.00545  24641481.739    24641479.911    24641498.889
       209.000         136.000
  -2782695.90049  -2069686.63747  20458186.117    20458184.767    20458193.328
       243.000         209.000
 01 12  3 16 30 29.9980000  0  9G20G13G27G29G 4G 1G25G 3G22
   -636498.78849   -489144.71047  20377120.594    20377119.329    20377127.114
       242.000         208.000
  -8843050.09849  -6874381.09847  21760459.198    21760458.897    21760467.043
       235.000         188.000
  -8859147.87949  -6869680.25246  23261922.295    23261921.517    23261932.792
       225.000         176.000
   2008492.83049   1557876.68245  24391425.868    24391424.363    24391441.168
       209.000         148.000
  -3842627.49449  -2981981.09845  23973066.176    23973065.445    23973076.069
       223.000         150.000
  -5783841.44849  -4491421.80747  20219913.563    20219912.709    20219920.718
       240.000         208.000
   2791729.75649   2168782.36846  24054457.289    24054455.555    24054468.974
       217.000         165.000
   -893219.55859   -384421.13355  24619104.166    24619104.005    24619123.042
       212.000         137.000
  -2793055.81549  -2077759.40247  20456214.753    20456213.412    20456221.978
       243.000         208.000
 01 12  3 16 30 59.9980000  0  9G20G13G27G29G 4G 1G25G 3G22
   -623066.42049   -478678.04947  20379676.796    20379675.509    20379683.330
       242.000         208.000
  -8956818.89149  -6963032.13947  21738809.780    21738809.455    21738817.602
       235.000         189.000
  -8975091.28649  -6960025.75446  23239858.869    23239858.166    23239869.496
       222.000         173.000
   2041622.56349   1583691.77645  24397730.600    24397729.126    24397746.073
       206.000         147.000
  -3873896.71949  -3006346.90245  23967116.045    23967115.251    23967126.025
       221.000         151.000
  -5852119.46849  -4544625.51147  20206920.721    20206919.867    20206927.905
       241.000         208.000
   2830539.21249   2199023.10746  24061842.737    24061841.062    24061854.575
       216.000         164.000
  -1010788.83549   -476033.60245  24596731.625    24596731.464    24596750.396
       212.000         139.000
  -2802762.72949  -2085323.33447  20454367.674    20454366.316    20454374.900
       243.000         209.000
 01 12  3 16 31 29.9980000  0  9G20G13G27G29G 4G 1G25G 3G22
   -609098.29049   -467793.91247  20382334.952    20382333.642    20382341.505
       242.000         208.000
  -9070460.17049  -7051583.81747  21717184.608    21717184.273    21717192.420
       235.000         189.000
  -9090844.02549  -7050222.69346  23217831.786    23217831.124    23217842.492
       225.000         177.000
   2074905.64149   1609626.35245  24404064.554    24404063.013    24404080.032
       209.000         146.000
  -3904666.42449  -3030323.46345  23961260.847    23961260.157    23961270.890
       220.000         149.000
  -5920147.55649  -4597634.46247  20193975.459    20193974.587    20193982.657
       240.000         208.000
   2869354.82549   2229268.66745  24069229.326    24069227.699    24069241.314
       212.000         162.000
  -1128332.78149   -567626.31345  24574363.778    24574363.640    24574381.530
       208.000         139.000
  -2811821.79549  -2092382.44447  20452643.873    20452642.500    20452651.103
       243.000         208.000
 01 12  3 16 31 59.9980000  0  9G20G13G27G29G 4G 1G25G 3G22
   -594597.41349   -456494.65047  20385094.439    20385093.155    20385101.055
       242.000         208.000
  -9183974.52149  -7140036.58747  21695583.526    21695583.215    21695591.420
       235.000         190.000
  -9206407.51849  -7140272.17246  23195840.909    23195840.182    23195851.502
       225.000         177.000
   2108340.19949   1635678.99845  24410426.932    24410425.656    24410442.706
       209.000         143.000
  -3934939.32549  -3053912.91245  23955500.041    23955499.433    23955510.284
       218.000         143.000
  -5987925.95449  -4650448.85147  20181077.684    20181076.826    20181084.927
       240.000         208.000
   2908174.14849   2259517.09745  24076616.723    24076615.035    24076628.776
       214.000         161.000
  -1245849.77149   -659197.89545  24552000.884    24552000.562    24552018.542
       205.000         140.000
  -2820235.90249  -2098938.99647  20451042.811    20451041.422    20451050.038
       243.000         208.000
 01 12  3 16 32 29.9980000  0  9G20G13G27G29G 4G 1G25G 3G22
   -579559.14049   -444776.63447  20387956.244    20387954.943    20387962.871
       243.000         208.000
  -9297354.21749  -7228384.42447  21674008.107    21674007.792    21674016.023
       234.000         189.000
  -9321775.08249  -7230168.99646  23173887.300    23173886.522    23173897.733
       226.000         176.000
   2141932.98149   1661854.97345  24416819.604    24416818.387    24416835.406
       206.000         142.000
  -3964710.40149  -3077111.36145  23949835.004    23949834.302    23949845.075
       222.000         146.000
  -6055447.04649  -4703062.73447  20168228.914    20168228.036    20168236.149
       240.000         208.000
   2947002.71349   2289772.73945  24084005.709    24084004.121    24084017.999
       213.000         162.000
  -1363330.61549   -750741.26945  24529644.831    24529644.324    24529663.014
       206.000         142.000
  -2828000.00149  -2104989.04147  20449565.458    20449564.043    20449572.681
       244.000         209.000
 01 12  3 16 32 59.9980000  0  9G20G13G27G29G 4G 1G25G 3G22
   -563985.35449   -432641.34347  20390919.921    20390918.626    20390926.580
       244.000         208.000
  -9410598.86649  -7316627.04547  21652458.347    21652458.081    21652466.313
       236.000         190.000
  -9436946.93549  -7319913.29646  23151970.805    23151970.053    23151981.221
       226.000         176.000
   2175683.29449   1688153.70645  24423242.473    24423241.137    24423258.156
       209.000         139.000
  -3993981.33049  -3099920.02545  23944265.054    23944264.348    23944275.143
       222.000         149.000
  -6122710.24949  -4755475.66147  20155429.196    20155428.321    20155436.448
       240.000         209.000
   2985839.68249   2320034.92545  24091396.378    24091394.811    24091408.833
       212.000         161.000
  -1480772.82349   -842254.48045  24507296.306    24507295.712    24507314.544
       208.000         145.000
  -2835115.99049  -2110534.06247  20448211.408    20448210.011    20448218.642
       243.000         209.000
 01 12  3 16 33 29.9980000  0  9G20G13G27G29G 4G 1G25G 3G22
   -547891.10049   -420100.48847  20393982.663    20393981.357    20393989.320
       244.000         207.000
  -9523720.36349  -7404773.68847  21630932.087    21630931.809    21630940.028
       237.000         190.000
  -9551935.85249  -7409515.08846  23130089.131    23130088.368    23130099.496
       226.000         178.000
   2209577.47549   1714564.56545  24429692.655    24429691.273    24429708.447
       205.000         137.000
  -4022766.34249  -3122350.12245  23938787.754    23938786.988    23938797.816
       222.000         150.000
  -6189727.47049  -4807696.91547  20142676.340    20142675.424    20142683.562
       240.000         208.000
   3024671.49649   2350293.10045  24098786.109    24098784.541    24098798.647
       211.000         159.000
  -1598186.77349   -933745.66645  24484953.234    24484952.692    24484971.380
       206.000         143.000
  -2841598.54549  -2115585.49147  20446977.900    20446976.499    20446985.132
       243.000         208.000
 01 12  3 16 33 59.9980000  0  9G20G13G27G29G 4G 1G25G 3G22
   -531271.77549   -407150.48547  20397145.282    20397144.005    20397151.973
       243.000         207.000
  -9636711.24749  -7492818.55047  21609430.638    21609430.378    21609438.596
       236.000         190.000
  -9666735.51749  -7498969.39146  23108243.538    23108242.759    23108253.915
       229.000         182.000
   2243622.02849   1741092.59645  24436171.224    24436169.938    24436187.298
       205.000         135.000
  -4051060.63149  -3144397.77945  23933403.584    23933402.893    23933413.871
       221.000         151.000
  -6256491.49349  -4859720.85747  20129971.618    20129970.702    20129978.847
       241.000         208.000
   3063503.62349   2380551.52445  24106175.790    24106174.395    24106188.494
       213.000         159.000
  -1715563.24349  -1025207.64045  24462617.228    24462616.666    24462635.477
       208.000         147.000
  -2847443.05049  -2120139.72547  20445865.811    20445864.408    20445873.049
       244.000         208.000
 01 12  3 16 34 29.9980000  0  9G20G13G27G29G 4G 1G25G 3G22
   -514125.92449   -393790.19847  20400408.095    20400406.837    20400414.830
       244.000         208.000
  -9749567.15849  -7580758.24847  21587954.961    21587954.653    21587962.827
       236.000         191.000
  -9781342.65949  -7588273.69246  23086434.617    23086433.805    23086444.974
       227.000         179.000
   2277819.97949   1767740.17445  24442679.028    24442677.774    24442695.092
       204.000         132.000
  -4078862.42849  -3166061.70945  23928113.138    23928112.479    23928123.615
       222.000         150.000
  -6322997.74549  -4911543.94547  20117315.953    20117315.033    20117323.182
       240.000         208.000
   3102338.42449   2410812.02445  24113566.114    24113564.724    24113578.838
       211.000         157.000
  -1832896.14749  -1116635.67145  24440289.466    24440288.910    24440307.943
       207.000         148.000
  -2852647.55849  -2124195.26247  20444875.477    20444874.080    20444882.755
       243.000         208.000
 01 12  3 16 34 59.9980000  0  8G20G13G27G 4G 1G25G 3G22
   -496458.30949   -380023.34547  20403770.213    20403768.957    20403777.005
       244.000         208.000
  -9862290.25149  -7668594.44947  21566504.456    21566504.189    21566512.339
       237.000         191.000
  -9895760.34149  -7677430.36446  23064661.782    23064660.929    23064672.111
       228.000         181.000
  -4106176.24449  -3187345.35645  23922915.587    23922914.964    23922926.189
       221.000         150.000
  -6389248.44949  -4963167.90647  20104708.933    20104707.989    20104716.139
       240.000         208.000
   3141171.97549   2441071.56845  24120956.216    24120954.763    24120969.029
       214.000         156.000
  -1950185.74149  -1208029.97945  24417969.958    24417969.422    24417988.409
       207.000         148.000
  -2857216.97349  -2127755.91647  20444005.991    20444004.620    20444013.311
       244.000         209.000
 01 12  3 16 35 29.9980000  0  8G20G13G27G 4G 1G25G 3G22
   -478269.44549   -365850.32447  20407231.544    20407230.282    20407238.382
       244.000         208.000
  -9974878.04649  -7756325.21347  21545079.742    21545079.465    21545087.600
       237.000         191.000
 -10009986.88749  -7766438.09746  23042925.172    23042924.356    23042935.501
       227.000         178.000
  -4133002.11549  -3208248.84745  23917810.986    23917810.338    23917821.486
       224.000         151.000
  -6455241.18049  -5014590.84647  20092150.948    20092150.030    20092158.180
       240.000         208.000
   3180004.93549   2471330.63145  24128346.266    24128344.699    24128359.063
       219.000         155.000
  -2067427.92649  -1299387.35245  24395659.528    24395659.004    24395677.793
       206.000         148.000
  -2861151.65649  -2130821.96847  20443257.341    20443255.963    20443264.653
       244.000         208.000
 01 12  3 16 35 59.9980000  0  8G20G13G27G 4G 1G25G 3G22
   -459563.23649   -351274.18547  20410791.372    20410790.074    20410798.200
       244.000         208.000
 -10087331.63749  -7843951.41247  21523680.532    21523680.279    21523688.413
       237.000         191.000
 -10124024.60449  -7855298.70146  23021224.449    23021223.687    23021234.818
       225.000         178.000
  -4159343.58149  -3228774.86345  23912798.597    23912797.870    23912809.139
       222.000         154.000
  -6520976.85549  -5065813.48847  20079641.859    20079640.974    20079649.136
       240.000         208.000
   3218834.76649   2501587.27345  24135735.600    24135734.069    24135748.524
       214.000         153.000
  -2184622.07449  -1390707.28845  24373358.337    24373357.690    24373376.423
       203.000         146.000
  -2864455.36349  -2133396.35547  20442628.776    20442627.368    20442636.062
       244.000         208.000
 01 12  3 16 36 29.9980000  0  8G20G13G27G 4G 1G25G 3G22
   -440346.55049   -336300.26147  20414448.283    20414446.996    20414455.126
       244.000         207.000
 -10199654.75849  -7931475.93447  21502306.172    21502305.924    21502314.041
       238.000         192.000
 -10237878.15749  -7944015.77546  22999558.704    22999558.044    22999569.141
       227.000         177.000
  -4185207.18849  -3248928.49645  23907877.040    23907876.297    23907887.622
       221.000         151.000
  -6586459.12949  -5116838.66747  20067181.034    20067180.148    20067188.314
       240.000         208.000
   3257655.78049   2531837.06345  24143123.147    24143121.696    24143136.355
       211.000         154.000
  -2301769.97549  -1481991.22645  24351065.601    24351065.065    24351083.948
       201.000         145.000
  -2867134.63949  -2135484.17047  20442118.989    20442117.591    20442126.310
       244.000         208.000
 01 12  3 16 36 59.9980000  0  8G20G13G27G 4G 1G25G 3G22
   -420626.47049   -320934.08947  20418200.966    20418199.685    20418207.850
       244.000         208.000
 -10311851.68749  -8018902.12647  21480955.830    21480955.584    21480963.713
       237.000         192.000
 -10351552.79649  -8032593.44946  22977927.223    22977926.529    22977937.542
       227.000         178.000
  -4210599.59049  -3268714.96545  23903045.184    23903044.465    23903055.857
       222.000         154.000
  -6651692.41149  -5167669.82647  20054767.596    20054766.714    20054774.876
       240.000         208.000
   3296461.94649   2562075.26145  24150507.918    24150506.480    24150521.352
       217.000         152.000
  -2418874.24049  -1573241.21745  24328781.306    24328780.774    24328799.602
       201.000         141.000
  -2869196.38649  -2137090.79947  20441726.716    20441725.334    20441734.051
       244.000         208.000
 01 12  3 16 37 29.9980000  0  8G20G13G27G 4G 1G25G 3G22
   -400396.89449   -305170.90347  20422050.597    20422049.333    20422057.532
       244.000         207.000
 -10423913.03249  -8106222.66347  21459631.300    21459631.039    21459639.160
       238.000         192.000
 -10465040.26849  -8121025.27846  22956331.509    22956330.688    22956341.702
       230.000         180.000
  -4235514.44949  -3288129.34645  23898304.056    23898303.423    23898314.947
       222.000         153.000
  -6716667.53549  -5218299.82347  20042403.305    20042402.399    20042410.558
       240.000         208.000
   3335260.78149   2592307.76445  24157891.392    24157889.908    24157904.921
       215.000         151.000
  -2535923.70248  -1664448.52045  24306507.208    24306506.874    24306525.496
       193.000         143.000
  -2870634.50349  -2138211.49047  20441453.125    20441451.747    20441460.464
       244.000         208.000
 01 12  3 16 37 59.9980000  0  8G20G13G27G 4G 1G25G 3G22
   -379662.46849   -289014.32947  20425996.361    20425995.066    20426003.303
       244.000         208.000
 -10535840.60549  -8193438.96547  21438332.228    21438331.942    21438340.052
       237.000         192.000
 -10578343.35649  -8209313.43046  22934770.804    22934769.896    22934780.949
       229.000         181.000
  -4259955.84749  -3307174.78945  23893653.282    23893652.541    23893664.118
       222.000         155.000
  -6781386.25249  -5268730.01947  20030087.787    20030086.880    20030095.032
       240.000         207.000
   3374048.49549   2622531.60245  24165272.743    24165271.246    24165286.339
       216.000         151.000
  -2652918.39049  -1755613.14245  24284243.359    24284243.231    24284262.092
       195.000         142.000
  -2871453.52349  -2138849.77647  20441297.338    20441295.961    20441304.683
       244.000         208.000
 01 12  3 16 38 29.9980000  0  8G20G13G27G 4G 1G25G 3G22
   -358429.08249   -272468.95347  20430037.089    20430035.760    20430044.026
       245.000         207.000
 -10647637.33049  -8280553.30547  21417058.050    21417057.765    21417065.855
       237.000         192.000
 -10691465.85949  -8297460.87046  22913244.256    22913243.405    22913254.575
       228.000         181.000
  -4283929.27149  -3325855.61345  23889091.423    23889090.681    23889102.326
       223.000         154.000
  -6845851.15849  -5318962.43447  20017820.559    20017819.653    20017827.798
       240.000         207.000
   3412820.86749   2652743.47345  24172651.119    24172649.701    24172664.771
       220.000         150.000
  -2769859.39449  -1846735.96845  24261990.341    24261990.013    24262008.960
       195.000         143.000
  -2871659.00049  -2139009.98147  20441258.329    20441256.925    20441265.682
       243.000         208.000
 01 12  3 16 38 59.9980000  0  8G20G13G27G 4G 1G25G 3G22
   -336695.88549   -255534.11447  20434172.855    20434171.552    20434179.851
       243.000         207.000
 -10759299.13249  -8367562.51447  21395809.521    21395809.247    21395817.324
       238.000         192.000
 -10804405.11249  -8385465.51946  22891752.519    22891751.746    22891762.972
       228.000         180.000
  -4307433.67849  -3344170.91645  23884618.828    23884618.130    23884629.698
       221.000         154.000
  -6910058.50649  -5368994.15847  20005602.312    20005601.433    20005609.563
       239.000         207.000
   3451579.88249   2682944.95345  24180027.126    24180025.599    24180040.649
       220.000         151.000
  -2886741.07348  -1937812.54445  24239748.358    24239748.143    24239766.981
       194.000         141.000
  -2871250.05349  -2138691.42047  20441336.198    20441334.805    20441343.585
       243.000         207.000
 01 12  3 16 39 29.9970000  0  8G20G13G27G 4G 1G25G 3G22
   -314464.96249   -238211.43747  20438403.291    20438402.025    20438410.379
       243.000         207.000
 -10870820.49949  -8454462.29747  21374587.700    21374587.455    21374595.521
       238.000         192.000
 -10917156.61649  -8473323.86346  22870296.585    22870295.828    22870306.962
       227.000         179.000
  -4330469.10649  -3362120.79545  23880235.371    23880234.717    23880246.458
       221.000         156.000
  -6974004.33649  -5418822.09747  19993433.855    19993432.981    19993441.107
       240.000         207.000
   3490324.48449   2713135.19045  24187400.107    24187398.723    24187413.825
       221.000         154.000
  -3003555.65749  -2028836.83745  24217519.343    24217518.910    24217537.816
       198.000         142.000
  -2870227.95649  -2137895.08747  20441530.772    20441529.379    20441538.180
       243.000         207.000
 01 12  3 16 39 59.9970000  0  8G20G13G27G 4G 1G25G 3G22
   -291737.42949   -220501.79647  20442728.273    20442727.003    20442735.401
       243.000         206.000
 -10982208.35349  -8541258.03947  21353391.266    21353391.044    21353399.144
       238.000         192.000
 -11029728.52349  -8561042.24646  22848874.923    22848874.148    22848885.127
       228.000         180.000
  -4353039.59449  -3379708.35645  23875940.597    23875939.842    23875951.693
       220.000         155.000
  -7037692.58649  -5468449.32947  19981314.401    19981313.548    19981321.669
       239.000         207.000
   3529055.61149   2743314.93345  24194770.708    24194769.283    24194784.567
       221.000         154.000
  -3120308.83649  -2119813.30645  24195302.056    24195301.593    24195320.426
       199.000         143.000
  -2868595.21049  -2136622.92647  20441841.561    20441840.157    20441848.974
       243.000         207.000
 01 12  3 16 40 29.9970000  0  8G20G13G27G 4G 1G25G 3G22
   -268508.64849   -202401.57547  20447148.673    20447147.391    20447155.832
       243.000         207.000
 -11093450.66949  -8627940.38747  21332222.524    21332222.323    21332230.432
       238.000         193.000
 -11142109.62849  -8648611.94646  22827489.642    22827488.801    22827499.723
       230.000         181.000
  -4375138.41449  -3396928.39645  23871735.503    23871734.705    23871746.768
       223.000         156.000
  -7101112.51549  -5517867.47947  19969246.041    19969245.176    19969253.285
       240.000         207.000
   3567778.55749   2773488.29145  24202139.798    24202138.342    24202153.793
       221.000         156.000
  -3236986.60549  -2210730.99045  24173099.081    24173098.526    24173117.402
       196.000         143.000
  -2866346.17349  -2134870.54447  20442269.616    20442268.216    20442277.031
       243.000         207.000
 01 12  3 16 40 59.9970000  0  8G20G13G27G 4G 1G25G 3G22
   -244790.02049   -183919.64947  20451662.279    20451660.993    20451669.469
       243.000         207.000
 -11204555.60349  -8714515.67947  21311080.014    21311079.773    21311087.884
       239.000         193.000
 -11254309.36149  -8736040.33846  22806138.709    22806137.903    22806148.912
       228.000         182.000
  -4396776.82849  -3413789.70545  23867617.923    23867617.214    23867629.206
       221.000         152.000
  -7164272.48649  -5567083.06447  19957227.125    19957226.266    19957234.370
       240.000         207.000
   3606483.50649   2803647.63645  24209505.610    24209504.008    24209519.615
       224.000         157.000
  -3353595.33449  -2301594.85045  24150909.027    24150908.584    24150927.330
       200.000         143.000
  -2863492.18849  -2132646.77547  20442812.784    20442811.385    20442820.220
       243.000         206.000
 01 12  3 16 41 29.9970000  0  8G20G13G27G 4G 1G25G 3G22
   -220590.73749   -165063.19447  20456267.381    20456266.072    20456274.583
       243.000         207.000
 -11315528.93149  -8800988.42447  21289962.602    21289962.292    21289970.393
       239.000         194.000
 -11366334.71149  -8823332.84846  22784820.976    22784820.199    22784831.349
       228.000         182.000
  -4417963.49549  -3430298.97845  23863586.506    23863585.714    23863597.646
       221.000         151.000
  -7227178.41049  -5616100.69347  19945256.513    19945255.695    19945263.800
       240.000         207.000
   3645162.88549   2833787.05345  24216866.522    24216864.828    24216880.460
       218.000         158.000
  -3470139.05449  -2392408.03045  24128731.390    24128730.972    24128749.637
       200.000         144.000
  -2860042.40949  -2129958.75547  20443469.360    20443467.937    20443476.782
       242.000         206.000
 01 12  3 16 41 59.9970000  0  8G20G13G27G 4G 1G25G 3G22
   -195905.29849   -145827.91847  20460964.958    20460963.657    20460972.218
       243.000         207.000
 -11426362.10349  -8887351.95047  21268871.769    21268871.460    21268879.561
       239.000         193.000
 -11478178.34049  -8910483.75946  22763537.931    22763537.111    22763548.346
       229.000         184.000
  -4438692.61349  -3446451.72745  23859641.804    23859641.179    23859653.263
       220.000         152.000
  -7289821.80249  -5664913.75847  19933335.910    19933335.077    19933343.206
       240.000         207.000
   3683823.11249   2863911.53645  24224223.530    24224221.913    24224237.619
       218.000         157.000
  -3586607.40849  -2483162.46545  24106568.059    24106567.647    24106586.467
       199.000         145.000
  -2855991.24249  -2126802.12547  20444240.357    20444238.920    20444247.814
       242.000         206.000
 01 12  3 16 42 29.9970000  0  8G20G13G27G 4G 1G25G 3G22
   -170732.39249   -126212.79347  20465755.283    20465753.983    20465762.593
       242.000         206.000
 -11537050.40349  -8973602.59947  21247808.494    21247808.216    21247816.294
       239.000         193.000
 -11589836.57749  -8997490.20146  22742290.209    22742289.333    22742300.513
       229.000         181.000
  -4458962.20449  -3462246.36345  23855784.872    23855784.165    23855796.245
       221.000         152.000
  -7352197.93849  -5713518.57447  19921466.185    19921465.334    19921473.458
       240.000         208.000
   3722467.56749   2894023.71745  24231577.560    24231575.963    24231591.751
       216.000         156.000
  -3702994.04449  -2573853.19245  24084420.166    24084419.866    24084438.764
       201.000         145.000
  -2851337.14349  -2123175.67547  20445126.056    20445124.637    20445133.585
       243.000         206.000
 01 12  3 16 42 59.9970000  0  8G20G13G27G 4G 1G25G 3G22
   -145090.61949   -106232.30947  20470634.813    20470633.530    20470642.209
       242.000         206.000
 -11647609.24049  -9059752.36747  21226769.863    21226769.589    21226777.646
       239.000         193.000
 -11701325.96249  -9084365.06746  22721074.543    22721073.664    22721084.652
       231.000         181.000
  -4478790.93649  -3477697.54945  23852011.827    23852011.012    23852023.247
       220.000         150.000
  -7414322.41149  -5761927.28747  19909644.327    19909643.472    19909651.610
       240.000         208.000
   3761078.65449   2924109.89745  24238925.079    24238923.680    24238939.521
       212.000         158.000
  -3819312.63649  -2664490.88045  24062285.484    24062285.104    24062303.809
       204.000         145.000
  -2846098.62249  -2119093.82447  20446122.994    20446121.578    20446130.556
       242.000         206.000
 01 12  3 16 43 29.9970000  0  8G20G13G27G 4G 1G25G 3G22
   -118967.64349    -85876.86647  20475605.873    20475604.650    20475613.396
       242.000         207.000
 -11758023.19549  -9145789.24647  21205758.799    21205758.536    21205766.575
       240.000         193.000
 -11812632.14749  -9171097.16446  22699893.642    22699892.794    22699903.700
       229.000         179.000
  -4498166.16549  -3492795.26645  23848325.014    23848324.229    23848336.364
       220.000         148.000
  -7476179.90649  -5810127.97047  19897873.226    19897872.412    19897880.558
       239.000         208.000
   3799670.29449   2954180.92745  24246269.099    24246267.678    24246283.603
       216.000         158.000
  -3935546.13049  -2755062.19045  24040166.855    24040166.510    24040185.274
       203.000         145.000
  -2840263.60249  -2114547.16447  20447233.423    20447232.018    20447241.031
       243.000         206.000
 01 12  3 16 43 59.9970000  0  8G20G13G27G 4G 1G25G 3G22
    -92361.37649    -65144.83547  20480668.969    20480667.740    20480676.550
       242.000         207.000
 -11868286.58149  -9231708.79447  21184776.395    21184776.124    21184784.158
       240.000         193.000
 -11923750.76049  -9257683.12346  22678748.337    22678747.585    22678758.547
       228.000         182.000
  -4517085.15049  -3507537.53645  23844725.003    23844724.228    23844736.408
       220.000         153.000
  -7537764.75249  -5858116.20647  19886154.025    19886153.228    19886161.380
       239.000         208.000
   3838246.34449   2984239.80845  24253610.240    24253608.711    24253624.780
       213.000         158.000
  -4051687.37249  -2845561.58845  24018065.791    24018065.432    24018084.407
       208.000         147.000
  -2833829.45749  -2109533.65347  20448457.842    20448456.463    20448465.517
       242.000         206.000
 01 12  3 16 44 29.9970000  0  8G20G13G27G 4G 1G25G 3G22
    -65281.06249    -44043.41447  20485822.329    20485821.061    20485829.916
       242.000         207.000
 -11978405.43849  -9317515.72047  21163821.486    21163821.226    21163829.218
       239.000         192.000
 -12034688.98149  -9344128.50346  22657637.468    22657636.730    22657647.851
       229.000         183.000
  -4535556.83249  -3521931.23845  23841210.026    23841209.285    23841221.368
       219.000         152.000
  -7599082.75549  -5905896.51847  19874485.635    19874484.832    19874492.986
       240.000         208.000
   3876798.85849   3014280.35245  24260946.670    24260945.297    24260961.482
       207.000         156.000
  -4167740.13549  -2935992.03145  23995981.572    23995981.256    23996000.168
       209.000         146.000
  -2826805.41349  -2104060.47547  20449794.521    20449793.159    20449802.260
       242.000         206.000
 01 12  3 16 44 59.9970000  0  8G20G13G27G 4G 1G25G 3G22
    -37732.91249    -22577.44647  20491064.678    20491063.407    20491072.287
       241.000         207.000
 -12088382.62549  -9403212.25447  21142893.566    21142893.281    21142901.276
       239.000         192.000
 -12145451.08149  -9430436.64946  22636560.216    22636559.458    22636570.676
       230.000         185.000
  -4553587.42849  -3535981.25645  23837779.024    23837778.328    23837790.455
       220.000         156.000
  -7660137.31449  -5953471.55047  19862867.385    19862866.568    19862874.728
       240.000         208.000
   3915323.06349   3044298.84345  24268277.944    24268276.534    24268292.814
       207.000         156.000
  -4283705.87049  -3026354.67745  23973913.922    23973913.672    23973932.322
       209.000         147.000
  -2819197.93649  -2098132.66447  20451242.256    20451240.887    20451250.040
       242.000         207.000
 01 12  3 16 45 29.9970000  0  8G20G13G27G 4G 1G25G 3G22
     -9722.62049      -751.36547  20496394.911    20496393.656    20496402.611
       241.000         206.000
 -12198220.27149  -9488800.04947  21121992.146    21121991.883    21121999.906
       239.000         192.000
 -12256040.37949  -9516610.13646  22615515.864    22615515.069    22615526.309
       229.000         183.000
  -4571181.98649  -3549691.47445  23834431.082    23834430.354    23834442.639
       219.000         155.000
  -7720930.46049  -6000842.88747  19851298.901    19851298.062    19851306.220
       240.000         208.000
   3953815.21049   3074292.35945  24275603.216    24275601.624    24275618.061
       209.000         153.000
  -4399585.14549  -3116649.93945  23951862.572    23951862.388    23951881.108
       211.000         148.000
  -2811012.40349  -2091754.41947  20452799.984    20452798.625    20452807.824
       243.000         207.000
 01 12  3 16 45 59.9970000  0  8G20G13G27G 4G 1G25G 3G22
     18752.70449     21437.07047  20501813.589    20501812.376    20501821.426
       241.000         207.000
 -12307912.26749  -9574274.35247  21101118.433    21101118.194    21101126.232
       239.000         193.000
 -12366451.86949  -9602645.05846  22594505.202    22594504.468    22594515.699
       229.000         183.000
  -4588337.24549  -3563059.38745  23831166.737    23831165.975    23831178.358
       221.000         158.000
  -7781456.29349  -6048005.93147  19839781.259    19839780.409    19839788.587
       240.000         208.000
   3992279.63749   3104264.24745  24282923.298    24282921.526    24282937.938
       204.000         152.000
  -4515370.04549  -3206871.70545  23929829.174    23929829.077    23929848.007
       212.000         148.000
  -2802245.84249  -2084923.42747  20454468.291    20454466.929    20454476.159
       242.000         206.000
 01 12  3 16 46 29.9970000  0  8G20G13G27G 4G 1G25G 3G22
     47697.31349     43991.18247  20507321.675    20507320.439    20507329.532
       242.000         207.000
 -12417450.86149  -9659629.11447  21080273.932    21080273.703    21080281.752
       239.000         194.000
 -12476679.34349  -9688536.58646  22573529.538    22573528.839    22573540.013
       229.000         182.000
  -4605048.88649  -3576081.61745  23827986.736    23827985.997    23827998.471
       219.000         153.000
  -7841707.17949  -6094954.73547  19828315.955    19828315.086    19828323.251
       239.000         208.000
   4030722.18549   3134219.10145  24290239.194    24290237.299    24290253.638
       206.000         154.000
  -4631051.02849  -3297012.51645  23907815.453    23907815.494    23907834.398
       212.000         147.000
  -2792894.16449  -2077636.49547  20456247.941    20456246.553    20456255.819
       241.000         206.000
 01 12  3 16 46 59.9970000  0  8G20G13G27G 4G 1G25G 3G22
     77110.50449     66910.41847  20512918.980    20512917.695    20512926.809
       242.000         206.000
 -12526833.35849  -9744862.24547  21059459.190    21059458.947    21059466.982
       239.000         194.000
 -12586721.18149  -9774283.46546  22552589.209    22552588.549    22552599.699
       229.000         182.000
  -4621317.11149  -3588758.36445  23824891.144    23824890.422    23824902.845
       221.000         157.000
  -7901680.38249  -6141687.16147  19816903.467    19816902.599    19816910.761
       240.000         207.000
   4069144.01249   3164157.79645  24297551.063    24297549.073    24297565.360
       211.000         151.000
  -4746623.73349  -3387069.00445  23885822.611    23885822.547    23885841.226
       214.000         144.000
  -2782957.87349  -2069894.01947  20458138.827    20458137.447    20458146.726
       241.000         205.000
 01 12  3 16 47 29.9970000  0  8G20G13G27G 4G 1G25G 3G22
    106975.74249     90181.89647  20518602.223    20518600.955    20518610.096
       241.000         206.000
 -12636072.91849  -9829983.99447  21038671.668    21038671.385    21038679.408
       240.000         194.000
 -12696591.74749  -9859896.90546  22531681.662    22531680.932    22531692.039
       230.000         185.000
  -4637158.05149  -3601102.15045  23821876.808    23821876.127    23821888.577
       222.000         157.000
  -7961389.02449  -6188213.43447  19805541.342    19805540.462    19805548.622
       240.000         208.000
   4107530.14949   3194068.67545  24304856.175    24304854.060    24304870.355
       208.000         152.000
  -4862099.63349  -3477050.05545  23863848.201    23863848.063    23863866.684
       213.000         142.000
  -2772453.46549  -2061708.86047  20460137.826    20460136.440    20460145.744
       242.000         206.000
 01 12  3 16 47 59.9970000  0  8G20G13G27G 4G 1G25G 3G22
    137287.43049    113801.26547  20524370.403    20524369.156    20524378.339
       242.000         206.000
 -12745171.38049  -9914995.78747  21017910.970    21017910.657    21017918.683
       240.000         194.000
 -12806294.43449  -9945379.50846  22510806.043    22510805.272    22510816.461
       230.000         186.000
  -4652576.83649  -3613116.93045  23818942.911    23818942.181    23818954.596
       222.000         156.000
  -8020835.42149  -6234535.35647  19794229.117    19794228.239    19794236.410
       240.000         208.000
   4145876.69649   3223948.71345  24312153.407    24312151.448    24312167.775
       209.000         152.000
  -4977479.09649  -3566956.02045  23841892.193    23841891.994    23841910.556
       214.000         140.000
  -2761386.43049  -2053085.28347  20462243.884    20462242.494    20462251.844
       241.000         205.000
 01 12  3 16 48 29.9970000  0  8G20G13G27G 4G 1G25G 3G22
    168053.47749    137774.67947  20530225.036    20530223.817    20530233.048
       242.000         206.000
 -12854117.39449  -9999888.78947  20997179.235    20997178.942    20997186.972
       240.000         194.000
 -12915819.13849 -10030723.42946  22489964.123    22489963.412    22489974.715
       229.000         185.000
  -4667565.55449  -3624796.64145  23816090.819    23816090.097    23816102.654
       221.000         160.000
  -8080008.26449  -6280644.12047  19782968.985    19782968.087    19782976.253
       239.000         208.000
   4184193.47849   3253805.56645  24319445.205    24319443.135    24319459.620
       214.000         155.000
  -5092749.09349  -3656776.76645  23819956.996    23819956.791    23819974.959
       214.000         139.000
  -2749748.94849  -2044017.21347  20464458.505    20464457.105    20464466.474
       241.000         205.000
 01 12  3 16 48 59.9970000  0  8G20G13G27G 4G 1G25G 3G22
    199264.65849    162094.94847  20536164.484    20536163.217    20536172.451
       243.000         206.000
 -12962916.75649 -10084667.51847  20976475.378    20976475.111    20976483.169
       240.000         194.000
 -13025173.04949 -10115934.27846  22469154.694    22469154.042    22469165.365
       230.000         183.000
  -4682132.94249  -3636147.99645  23813318.951    23813318.185    23813330.819
       218.000         155.000
  -8138913.39949  -6326544.28347  19771759.770    19771758.866    19771767.036
       240.000         208.000
   4222472.56249   3283633.04145  24326729.587    24326727.633    24326744.379
       208.000         155.000
  -5207913.89749  -3746515.57245  23798041.750    23798041.535    23798059.522
       214.000         140.000
  -2737550.14149  -2034511.74747  20466779.947    20466778.540    20466787.906
       241.000         205.000
 01 12  3 16 49 29.9970000  0  8G20G13G27G 4G 1G25G 3G22
    230916.48149    186758.57647  20542187.790    20542186.480    20542195.696
       242.000         205.000
 -13071570.29349 -10169332.61247  20955799.271    20955799.038    20955807.081
       239.000         195.000
 -13134358.26249 -10201013.66146  22448377.434    22448376.754    22448388.027
       230.000         184.000
  -4696283.17049  -3647174.34345  23810626.308    23810625.593    23810638.304
       215.000         155.000
  -8197551.97249  -6372236.73147  19760601.281    19760600.372    19760608.552
       240.000         208.000
   4260711.84449   3313429.51845  24334006.277    24334004.568    24334021.408
       211.000         157.000
  -5322972.41449  -3836171.62945  23776146.735    23776146.546    23776164.611
       214.000         138.000
  -2724794.56149  -2024572.43447  20469207.349    20469205.928    20469215.291
       241.000         205.000
 01 12  3 16 49 59.9970000  0  8G20G13G27G 4G 1G25G 3G22
    263007.57549    211764.49547  20548294.619    20548293.313    20548302.538
       242.000         205.000
 -13180075.74149 -10253882.30747  20935151.351    20935151.148    20935159.217
       239.000         195.000
 -13243373.87949 -10285960.87446  22427632.447    22427631.798    22427642.986
       230.000         184.000
  -4710017.40849  -3657876.52045  23808012.806    23808012.147    23808024.998
       215.000         156.000
  -8255921.89949  -6417719.84447  19749493.922    19749492.993    19749501.180
       240.000         208.000
   4298911.22949   3343194.91945  24341275.731    24341273.910    24341290.856
       207.000         157.000
  -5437920.47249  -3925741.64545  23754273.041    23754272.635    23754290.686
       213.000         140.000
  -2711483.31849  -2014200.14147  20471740.471    20471739.058    20471748.419
       242.000         205.000
 01 12  3 16 50 29.9970000  0  8G20G13G27G 4G 1G25G 3G22
    295539.20549    237113.68847  20554485.237    20554483.966    20554493.217
       242.000         204.000
 -13288428.08849 -10338312.69947  20914532.581    20914532.370    20914540.464
       239.000         195.000
 -13352216.21849 -10370773.08246  22406920.661    22406919.870    22406930.937
       230.000         185.000
  -4723333.71149  -3668253.02945  23805478.939    23805478.290    23805491.087
       219.000         154.000
  -8314018.14449  -6462989.70047  19738438.646    19738437.711    19738445.889
       240.000         208.000
   4337074.02049   3372931.82445  24348538.076    24348536.278    24348553.355
       218.000         158.000
  -5552751.72349  -4015220.63345  23732421.304    23732420.912    23732438.821
       212.000         140.000
  -2697615.13349  -2003393.87247  20474379.552    20474378.169    20474387.552
       241.000         205.000
 01 12  3 16 50 59.9970000  0  8G20G13G27G 4G 1G25G 3G22
    328502.22649    262799.03147  20560757.984    20560756.700    20560765.981
       243.000         204.000
 -13396633.24249 -10422628.40247  20893941.769    20893941.607    20893949.733
       240.000         195.000
 -13460892.41749 -10455455.83346  22386240.297    22386239.475    22386250.591
       229.000         186.000
  -4736241.34349  -3678311.10745  23803022.858    23803022.217    23803035.032
       216.000         154.000
  -8371846.76549  -6508051.01147  19727434.249    19727433.338    19727441.521
       240.000         208.000
   4375192.68949   3402634.33745  24355792.119    24355790.343    24355807.424
       216.000         158.000
  -5667470.19449  -4104611.72345  23710590.960    23710590.638    23710608.665
       211.000         138.000
  -2683199.33849  -1992160.90947  20477122.864    20477121.477    20477130.895
       241.000         204.000
 01 12  3 16 51 29.9970000  0  8G20G13G27G 4G 1G25G 3G22
    361903.15149    288825.60047  20567114.048    20567112.794    20567122.067
       242.000         203.000
 -13504681.02249 -10506821.47547  20873380.975    20873380.794    20873388.942
       239.000         195.000
 -13569393.74249 -10540002.30647  22365593.073    22365592.319    22365603.614
       230.000         188.000
  -4748733.36149  -3688045.26045  23800645.874    23800645.195    23800658.089
       216.000         154.000
  -8429397.83749  -6552896.05547  19716482.661    19716481.779    19716489.971
       239.000         208.000
   4413275.43149   3432308.86745  24363039.527    24363037.589    24363054.699
       214.000         158.000
  -5782064.09049  -4193905.77645  23688784.304    23688784.007    23688802.117
       211.000         140.000
  -2668229.45549  -1980496.19147  20479971.638    20479970.243    20479979.668
       242.000         204.000
 01 12  3 16 51 59.9970000  0  8G20G13G27G 4G 1G25G 3G22
    395720.73749    315176.83647  20573549.485    20573548.192    20573557.441
       243.000         203.000
 -13612588.62849 -10590905.31747  20852846.876    20852846.670    20852854.826
       240.000         196.000
 -13677738.71149 -10624426.96946  22344975.620    22344974.948    22344986.309
       230.000         187.000
  -4760830.28049  -3697471.61245  23798344.011    23798343.311    23798356.385
       214.000         155.000
  -8486688.73949  -6597538.36647  19705580.598    19705579.725    19705587.923
       240.000         208.000
   4451303.58149   3461940.84945  24370276.384    24370274.468    24370291.635
       217.000         155.000
  -5896548.94049  -4283114.83545  23666998.721    23666998.216    23667016.209
       214.000         143.000
  -2652726.39049  -1968416.00547  20482921.886    20482920.486    20482929.889
       242.000         204.000
 01 12  3 16 52 29.9970000  0  8G20G13G27G 4G 1G25G 3G22
    429953.91249    341851.90247  20580063.935    20580062.667    20580071.901
       242.000         202.000
 -13720353.66749 -10674878.06747  20832339.876    20832339.675    20832347.818
       240.000         196.000
 -13785926.56649 -10708729.19046  22324388.147    22324387.481    22324398.854
       229.000         186.000
  -4772533.39249  -3706591.06645  23796117.140    23796116.450    23796129.581
       216.000         153.000
  -8543717.19349  -6641976.18047  19694728.523    19694727.624    19694735.816
       240.000         208.000
   4489277.36749   3491530.49145  24377502.623    24377500.873    24377518.114
       214.000         156.000
  -6010920.85649  -4372235.87645  23645234.691    23645234.062    23645251.891
       213.000         144.000
  -2636691.34849  -1955921.29847  20485973.387    20485971.962    20485981.344
       242.000         204.000
 01 12  3 16 52 59.9970000  0  8G20G13G27G 4G 1G25G 3G22
    464609.86449    368856.40947  20586658.863    20586657.586    20586666.800
       242.000         201.000
 -13827965.16149 -10758731.17547  20811862.073    20811861.890    20811870.041
       240.000         197.000
 -13893947.71949 -10792901.51147  22303832.512    22303831.792    22303843.089
       230.000         188.000
  -4783835.01449  -3715397.70945  23793966.664    23793965.991    23793979.119
       214.000         154.000
  -8600472.45449  -6686201.11447  19683928.410    19683927.519    19683935.702
       240.000         208.000
   4527206.08849   3521085.01545  24384720.273    24384718.709    24384736.013
       217.000         154.000
  -6125167.33049  -4461259.11345  23623494.552    23623493.754    23623511.587
       214.000         145.000
  -2620117.24049  -1943006.54447  20489127.439    20489125.996    20489135.385
       241.000         203.000
 01 12  3 16 53 29.9970000  0  8G20G13G27G 4G 1G25G 3G22
    499687.20949    396189.27847  20593333.939    20593332.678    20593341.875
       242.000         200.000
 -13935420.93249 -10842462.94347  20791413.945    20791413.733    20791421.880
       241.000         197.000
 -14001801.36249 -10876943.28446  22283308.620    22283307.930    22283319.227
       230.000         187.000
  -4794736.35549  -3723892.42845  23791892.372    23791891.653    23791904.802
       214.000         151.000
  -8656952.58949  -6730211.66647  19673180.676    19673179.756    19673187.941
       239.000         208.000
   4565090.22449   3550604.80345  24391929.618    24391928.062    24391945.362
       213.000         149.000
  -6239284.33549  -4550181.44345  23601778.804    23601778.071    23601795.802
       213.000         146.000
  -2603005.41649  -1929672.80247  20492383.818    20492382.361    20492391.767
       241.000         203.000
 01 12  3 16 53 59.9970000  0  8G20G13G27G 4G 1G25G 3G22
    535202.92249    423863.72647  20600092.444    20600091.199    20600100.366
       242.000         200.000
 -14042700.05649 -10926057.06047  20770999.427    20770999.204    20771007.354
       240.000         198.000
 -14109468.00249 -10960839.34947  22262820.281    22262819.604    22262830.956
       229.000         188.000
  -4805219.91349  -3732061.59245  23789897.497    23789896.822    23789909.989
       211.000         151.000
  -8713136.95649  -6773991.75047  19662489.174    19662488.263    19662496.465
       239.000         208.000
   4602948.91349   3580104.78045  24399133.859    24399132.571    24399149.866
       215.000         148.000
  -6353249.48649  -4638985.40445  23580091.955    23580091.217    23580108.822
       212.000         145.000
  -2585338.95449  -1915906.88247  20495745.706    20495744.260    20495753.686
       241.000         203.000
 01 12  3 16 54 29.9970000  0  8G20G13G27G 4G 1G25G 3G22
    571135.64549    451863.11647  20606930.366    20606929.088    20606938.231
       241.000         199.000
 -14149820.39549 -11009527.44547  20750615.058    20750614.875    20750623.045
       241.000         198.000
 -14216966.75149 -11044604.60547  22242363.929    22242363.254    22242374.721
       230.000         189.000
  -4815306.91849  -3739921.77945  23787978.101    23787977.449    23787990.699
       213.000         153.000
  -8769043.36349  -6817555.23747  19651850.580    19651849.666    19651857.886
       239.000         208.000
   4640762.43649   3609569.54545  24406329.872    24406328.457    24406345.747
       214.000         151.000
  -6467078.55949  -4727683.24045  23558431.003    23558430.201    23558447.849
       212.000         146.000
  -2567139.15049  -1901725.36847  20499209.136    20499207.669    20499217.113
       241.000         203.000
 01 12  3 16 54 59.9970000  0  8G20G13G27G 4G 1G25G 3G22
    607489.70249    480190.81447  20613848.484    20613847.173    20613856.291
       242.000         200.000
 -14256773.53149 -11092867.55147  20730262.553    20730262.363    20730270.549
       241.000         198.000
 -14324290.67749 -11128233.60747  22221940.875    22221940.186    22221951.759
       230.000         189.000
  -4824992.41449  -3747469.08045  23786135.148    23786134.523    23786147.787
       212.000         152.000
  -8824663.75049  -6860895.85347  19641266.362    19641265.489    19641273.737
       239.000         208.000
   4678537.78349   3639004.51145  24413518.494    24413517.118    24413534.369
       213.000         143.000
  -6580761.67849  -4816267.32145  23536797.880    23536797.015    23536814.806
       211.000         145.000
  -2548401.43249  -1887124.70247  20502774.892    20502773.439    20502782.897
       241.000         202.000
 01 12  3 16 55 29.9970000  0  8G20G13G27G 4G 1G25G 3G22
    644250.32049    508835.31647  20620843.911    20620842.607    20620851.752
       241.000         199.000
 -14363570.33049 -11176085.83247  20709939.786    20709939.602    20709947.812
       241.000         198.000
 -14431452.49749 -11211736.30147  22201548.699    22201548.003    22201559.552
       231.000         188.000
  -4834291.04549  -3754714.90045  23784365.842    23784365.136    23784378.516
       216.000         155.000
  -8880009.43549  -6904022.40847  19630734.466    19630733.585    19630741.860
       239.000         208.000
   4716261.35749   3668399.15845  24420697.306    24420695.975    24420713.235
       212.000         139.000
  -6694308.81149  -4904745.39045  23515190.446    23515189.645    23515207.537
       209.000         145.000
  -2529140.83449  -1872116.60147  20506440.188    20506438.711    20506448.187
       240.000         202.000
 01 12  3 16 55 59.9970000  0  7G20G13G27G 4G 1G 3G22
    681413.58849    537793.56847  20627915.973    20627914.658    20627923.838
       241.000         199.000
 -14470211.21149 -11259182.61747  20689646.677    20689646.521    20689654.740
       240.000         198.000
 -14538453.90049 -11295113.98147  22181186.969    22181186.298    22181197.851
       231.000         188.000
  -4843206.63649  -3761662.29845  23782669.298    23782668.669    23782682.086
       212.000         150.000
  -8935080.80149  -6946935.21547  19620254.771    19620253.899    19620262.195
       239.000         208.000
  -6807718.22849  -4993116.15845  23493609.216    23493608.443    23493626.398
       208.000         145.000
  -2509361.32449  -1856704.15147  20510204.185    20510202.720    20510212.232
       240.000         202.000
 01 12  3 16 56 29.9970000  0  7G20G13G27G 4G 1G 3G22
    718990.73249    567074.32247  20635066.780    20635065.469    20635074.674
       241.000         199.000
 -14576681.19549 -11342146.24347  20669386.116    20669385.938    20669394.205
       241.000         199.000
 -14645281.23249 -11378356.01547  22160858.329    22160857.708    22160869.247
       231.000         188.000
  -4851727.42149  -3768302.00745  23781047.927    23781047.290    23781060.772
       210.000         151.000
  -8989863.10049  -6989622.77247  19609830.083    19609829.219    19609837.519
       239.000         208.000
  -6920973.24049  -5081366.54845  23472057.198    23472056.709    23472074.723
       211.000         148.000
  -2489051.54249  -1840878.49947  20514069.073    20514067.643    20514077.197
       240.000         202.000
 01 12  3 16 56 59.9970000  0  7G20G13G27G 4G 1G 3G22
    756980.01649    596676.21647  20642295.981    20642294.697    20642303.946
       241.000         199.000
 -14682978.04249 -11424974.96447  20649158.496    20649158.321    20649166.606
       242.000         199.000
 -14751933.92149 -11461461.96847  22140562.913    22140562.334    22140573.902
       231.000         188.000
  -4859854.86549  -3774635.28445  23779501.478    23779500.803    23779514.315
       215.000         155.000
  -9044354.31749  -7032083.51847  19599460.790    19599459.919    19599468.231
       239.000         207.000
  -7034070.18449  -5169493.75445  23450535.578    23450535.029    23450553.119
       210.000         147.000
  -2468213.32749  -1824641.08047  20518034.572    20518033.126    20518042.735
       240.000         203.000
 01 12  3 16 57 29.9960000  0  7G20G13G27G 4G 1G 3G22
    795368.69849    626589.32547  20649601.190    20649599.932    20649609.196
       241.000         199.000
 -14789105.60249 -11507671.77147  20628963.059    20628962.927    20628971.207
       242.000         199.000
 -14858417.38149 -11544436.06147  22120299.703    22120299.161    22120310.762
       232.000         189.000
  -4867600.17349  -3780670.74245  23778027.832    23778027.115    23778040.612
       215.000         157.000
  -9098560.59749  -7074322.23347  19589145.742    19589144.845    19589153.176
       239.000         208.000
  -7147011.41949  -5257499.66945  23429043.394    23429042.928    23429060.986
       208.000         148.000
  -2446858.78749  -1808001.32847  20522098.333    20522096.859    20522106.518
       240.000         202.000
 01 12  3 16 57 59.9960000  0  7G20G13G27G 4G 1G 3G22
    834181.75649    656833.12747  20656987.188    20656985.912    20656995.202
       241.000         199.000
 -14895044.79249 -11590221.79847  20608803.536    20608803.384    20608811.662
       242.000         199.000
 -14964714.11549 -11627264.64047  22100072.101    22100071.544    22100083.149
       233.000         188.000
  -4874941.03549  -3786391.07145  23776631.084    23776630.345    23776643.986
       216.000         160.000
  -9152459.62949  -7116321.52647  19578889.167    19578888.245    19578896.602
       239.000         207.000
  -7259776.58449  -5345368.38145  23407584.653    23407584.252    23407602.333
       207.000         147.000
  -2424964.42749  -1790940.93347  20526264.768    20526263.318    20526273.020
       240.000         201.000
 01 12  3 16 58 29.9960000  0  7G20G13G27G 4G 1G 3G22
    873474.08249    687450.37847  20664464.413    20664463.127    20664472.404
       241.000         199.000
 -15000731.98449 -11672575.47047  20588691.987    20588691.801    20588700.064
       242.000         200.000
 -15070761.76449 -11709899.13047  22079891.904    22079891.345    22079902.953
       233.000         188.000
  -4881820.57249  -3791751.92045  23775322.141    23775321.367    23775335.005
       216.000         154.000
  -9205989.46049  -7158033.13747  19568702.779    19568701.894    19568710.283
       239.000         207.000
  -7372300.13449  -5433048.84845  23386171.891    23386171.636    23386189.658
       209.000         148.000
  -2402474.39849  -1773416.38947  20530544.539    20530543.117    20530552.858
       240.000         201.000
 01 12  3 16 58 59.9960000  0  7G20G13G27G 4G 1G 3G22
    913156.94549    718371.93947  20672015.962    20672014.648    20672023.938
       241.000         199.000
 -15106251.64649 -11754798.58347  20568612.232    20568612.055    20568620.364
       242.000         200.000
 -15176646.57249 -11792406.73647  22059742.640    22059742.090    22059753.678
       231.000         188.000
  -4888327.11049  -3796822.09745  23774084.021    23774083.332    23774097.053
       219.000         157.000
  -9259235.07249  -7199523.27947  19558570.513    19558569.622    19558578.022
       239.000         207.000
  -7484665.18949  -5520605.84845  23364789.401    23364789.099    23364807.177
       208.000         148.000
  -2379477.51549  -1755496.88647  20534920.809    20534919.362    20534929.167
       240.000         201.000
 01 12  3 16 59 29.9960000  0  7G20G13G27G 4G 1G 3G22
    953240.34849    749605.61847  20679643.745    20679642.386    20679651.707
       241.000         199.000
 -15211590.08049 -11836880.49747  20548567.016    20548566.827    20548575.132
       242.000         200.000
 -15282356.34949 -11874777.94446  22039626.579    22039626.119    22039637.696
       232.000         187.000
  -4894450.67749  -3801593.89245  23772918.955    23772918.203    23772931.876
       218.000         156.000
  -9312183.11349  -7240781.54747  19548494.823    19548493.966    19548502.387
       239.000         206.000
  -7596856.49349  -5608027.48345  23343440.081    23343439.737    23343457.703
       207.000         150.000
  -2355963.87349  -1737174.70947  20539395.424    20539393.962    20539403.835
       240.000         202.000
 01 12  3 16 59 59.9960000  0  7G20G13G27G 4G 1G 3G22
    993730.16049    781155.97347  20687348.808    20687347.445    20687356.805
       240.000         199.000
 -15316737.60449 -11918813.65047  20528558.122    20528557.952    20528566.236
       243.000         200.000
 -15387882.77649 -11957006.29747  22019545.630    22019545.100    22019556.607
       233.000         189.000
  -4900184.96049  -3806062.30245  23771827.826    23771827.116    23771840.771
       217.000         160.000
  -9364824.08049  -7281800.53647  19538477.614    19538476.761    19538485.190
       239.000         207.000
  -7708862.69349  -5695304.93945  23322125.730    23322125.467    23322143.485
       206.000         150.000
  -2331927.58049  -1718445.27747  20543969.549    20543968.037    20543977.957
       240.000         201.000
 01 12  3 17  0 29.9960000  0  7G20G13G27G 4G 1G 3G22
   1034593.57149    812997.44847  20695124.897    20695123.576    20695133.009
       240.000         199.000
 -15421722.90849 -12000620.40047  20508580.136    20508579.933    20508588.210
       243.000         200.000
 -15493256.22749 -12039115.44847  21999493.799    21999493.206    21999504.649
       234.000         189.000
  -4905562.46449  -3810252.76045  23770804.614    23770803.959    23770817.638
       215.000         153.000
  -9417186.95049  -7322602.82547  19528513.327    19528512.477    19528520.923
       239.000         207.000
  -7820711.02549  -5782459.42845  23300841.542    23300841.295    23300859.338
       207.000         150.000
  -2307401.57449  -1699334.24747  20548636.846    20548635.288    20548645.267
       240.000         201.000
 01 12  3 17  0 59.9960000  0  8G20G13G27G 4G 1G 3G31G22
   1075851.63149    845146.43047  20702976.142    20702974.824    20702984.300
       240.000         200.000
 -15526520.72449 -12082281.06147  20488637.819    20488637.597    20488645.863
       242.000         200.000
 -15598453.30649 -12121087.18047  21979475.519    21979474.873    21979486.276
       234.000         189.000
  -4910561.96149  -3814148.55845  23769853.350    23769852.740    23769866.405
       215.000         154.000
  -9469246.93249  -7363169.09947  19518606.709    19518605.839    19518614.302
       239.000         207.000
  -7932375.16749  -5869470.46845  23279592.409    23279592.131    23279610.263
       208.000         151.000
  -3092169.83359  -2078143.56054  24199500.551    24199499.799    24199520.792
       200.000         124.000
  -2282364.82949  -1679825.24247  20553401.291    20553399.728    20553409.761
       239.000         201.000
 01 12  3 17  1 29.9960000  0  8G20G13G27G 4G 1G 3G31G22
   1117500.02549    877599.56947  20710901.667    20710900.358    20710909.858
       240.000         200.000
 -15631131.74949 -12163796.15847  20468731.013    20468730.789    20468739.050
       242.000         200.000
 -15703475.90549 -12202922.94847  21959490.406    21959489.739    21959501.098
       234.000         190.000
  -4915187.41949  -3817753.01045  23768973.264    23768972.656    23768986.411
       220.000         157.000
  -9521004.59649  -7403499.79247  19508757.595    19508756.732    19508765.202
       239.000         207.000
  -8043853.87649  -5956337.05445  23258378.749    23258378.307    23258396.407
       208.000         152.000
  -3223161.76249  -2180215.13744  24174573.415    24174572.880    24174593.861
       203.000         130.000
  -2256821.64449  -1659921.61047  20558262.054    20558260.538    20558270.627
       239.000         201.000
